Time,TemperatureF,DewpointF,PressureIn,WindDirection,WindDirectionDegrees,WindSpeedMPH,WindSpeedGustMPH,Humidity,HourlyPrecipIn,Conditions,Clouds,dailyrainin,SoftwareType,DateUTC
2013-01-28 00:00:00,25.2,15.7,29.65,SE,135,5.1,7.8,67,0.00,,,0.00,WUHU216HW,2013-01-28 07:00:00,
2013-01-28 00:03:00,24.8,16.0,29.65,ESE,113,5.4,7.8,69,0.00,,,0.00,WUHU216HW,2013-01-28 07:03:00,
2013-01-28 00:05:00,24.1,15.4,29.65,SSW,203,2.7,7.8,69,0.00,,,0.00,WUHU216HW,2013-01-28 07:05:00,
2013-01-28 00:08:00,23.8,14.7,29.65,SE,135,2.0,7.8,68,0.00,,,0.00,WUHU216HW,2013-01-28 07:08:00,
2013-01-28 00:09:00,23.6,14.6,29.65,SE,135,2.5,7.8,68,0.00,,,0.00,WUHU216HW,2013-01-28 07:09:00,
2013-01-28 00:10:00,23.4,14.8,29.65,SE,135,3.1,7.8,69,0.00,,,0.00,WUHU216HW,2013-01-28 07:10:00,
2013-01-28 00:13:00,23.2,15.0,29.65,SE,135,2.9,5.6,70,0.00,,,0.00,WUHU216HW,2013-01-28 07:13:00,
2013-01-28 00:14:00,23.2,15.0,29.65,ESE,113,1.3,4.3,70,0.00,,,0.00,WUHU216HW,2013-01-28 07:14:00,
2013-01-28 00:16:00,23.2,15.0,29.65,SE,135,1.1,4.3,70,0.00,,,0.00,WUHU216HW,2013-01-28 07:16:00,
2013-01-28 00:18:00,23.0,14.8,29.65,SSE,158,1.6,4.3,70,0.00,,,0.00,WUHU216HW,2013-01-28 07:18:00,
2013-01-28 00:19:00,23.0,14.4,29.65,SSW,203,0.2,4.3,69,0.00,,,0.00,WUHU216HW,2013-01-28 07:19:00,
2013-01-28 00:21:00,23.0,14.4,29.65,SE,135,1.3,4.0,69,0.00,,,0.00,WUHU216HW,2013-01-28 07:21:00,
2013-01-28 00:23:00,23.0,14.8,29.65,SE,135,1.3,3.4,70,0.00,,,0.00,WUHU216HW,2013-01-28 07:23:00,
2013-01-28 00:24:00,23.0,14.8,29.65,SE,135,1.1,2.2,70,0.00,,,0.00,WUHU216HW,2013-01-28 07:24:00,
2013-01-28 00:26:00,23.0,14.8,29.65,SE,135,1.1,2.2,70,0.00,,,0.00,WUHU216HW,2013-01-28 07:26:00,
2013-01-28 00:28:00,23.0,14.8,29.65,SSE,158,1.1,2.0,70,0.00,,,0.00,WUHU216HW,2013-01-28 07:28:00,
2013-01-28 00:29:00,23.0,14.8,29.65,SSE,158,1.1,2.0,70,0.00,,,0.00,WUHU216HW,2013-01-28 07:29:00,
2013-01-28 00:31:00,23.0,14.8,29.65,SE,135,2.5,2.5,70,0.00,,,0.00,WUHU216HW,2013-01-28 07:31:00,
2013-01-28 00:33:00,23.0,14.8,29.65,SE,135,1.6,3.8,70,0.00,,,0.00,WUHU216HW,2013-01-28 07:33:00,
2013-01-28 00:34:00,23.0,14.8,29.65,SE,135,2.2,3.8,70,0.00,,,0.00,WUHU216HW,2013-01-28 07:34:00,
2013-01-28 00:35:00,23.0,14.8,29.65,ESE,113,1.1,3.8,70,0.00,,,0.00,WUHU216HW,2013-01-28 07:35:00,
2013-01-28 00:36:00,23.0,15.0,29.65,ESE,113,2.5,3.8,71,0.00,,,0.00,WUHU216HW,2013-01-28 07:36:00,
2013-01-28 00:39:00,23.0,15.0,29.65,ESE,113,1.8,3.8,71,0.00,,,0.00,WUHU216HW,2013-01-28 07:39:00,
2013-01-28 00:40:00,23.0,15.0,29.65,SE,135,2.2,3.8,71,0.00,,,0.00,WUHU216HW,2013-01-28 07:40:00,
2013-01-28 00:41:00,23.0,15.0,29.65,SSE,158,2.9,3.8,71,0.00,,,0.00,WUHU216HW,2013-01-28 07:41:00,
2013-01-28 00:44:00,23.0,15.4,29.65,South,180,3.4,4.7,72,0.00,,,0.00,WUHU216HW,2013-01-28 07:44:00,
2013-01-28 00:45:00,23.0,15.4,29.65,SSE,158,3.1,4.7,72,0.00,,,0.00,WUHU216HW,2013-01-28 07:45:00,
2013-01-28 00:46:00,22.9,15.2,29.65,SSE,158,2.7,4.7,72,0.00,,,0.00,WUHU216HW,2013-01-28 07:46:00,
2013-01-28 00:49:00,23.0,15.4,29.65,SSE,158,2.9,4.7,72,0.00,,,0.00,WUHU216HW,2013-01-28 07:49:00,
2013-01-28 00:50:00,22.9,15.2,29.65,SSE,158,3.1,4.7,72,0.00,,,0.00,WUHU216HW,2013-01-28 07:50:00,
2013-01-28 00:51:00,23.0,15.4,29.65,SSE,158,1.8,4.7,72,0.00,,,0.00,WUHU216HW,2013-01-28 07:51:00,
2013-01-28 00:54:00,23.0,15.4,29.65,SSW,203,1.8,4.5,72,0.00,,,0.00,WUHU216HW,2013-01-28 07:54:00,
2013-01-28 00:55:00,23.0,15.4,29.65,SSW,203,0.4,4.5,72,0.00,,,0.00,WUHU216HW,2013-01-28 07:55:00,
2013-01-28 00:56:00,23.0,15.4,29.65,SSW,203,0.0,4.5,72,0.00,,,0.00,WUHU216HW,2013-01-28 07:56:00,
2013-01-28 00:59:00,23.0,15.4,29.65,SSE,158,1.3,3.1,72,0.00,,,0.00,WUHU216HW,2013-01-28 07:59:00,
2013-01-28 01:00:00,22.9,15.2,29.65,SSE,158,1.3,3.1,72,0.00,,,0.00,WUHU216HW,2013-01-28 08:00:00,
2013-01-28 01:01:00,22.9,15.2,29.65,SW,225,1.6,2.0,72,0.00,,,0.00,WUHU216HW,2013-01-28 08:01:00,
2013-01-28 01:04:00,22.9,15.2,29.65,South,180,2.9,3.1,72,0.00,,,0.00,WUHU216HW,2013-01-28 08:04:00,
2013-01-28 01:05:00,22.9,15.2,29.65,South,180,3.4,3.4,72,0.00,,,0.00,WUHU216HW,2013-01-28 08:05:00,
2013-01-28 01:06:00,22.9,15.2,29.65,SSE,158,4.7,4.7,72,0.00,,,0.00,WUHU216HW,2013-01-28 08:06:00,
2013-01-28 01:09:00,22.9,15.2,29.65,SSE,158,4.9,5.4,72,0.00,,,0.00,WUHU216HW,2013-01-28 08:09:00,
2013-01-28 01:10:00,22.9,15.2,29.65,SSE,158,4.9,5.4,72,0.00,,,0.00,WUHU216HW,2013-01-28 08:10:00,
2013-01-28 01:12:00,22.9,15.2,29.65,SE,135,2.0,5.4,72,0.00,,,0.00,WUHU216HW,2013-01-28 08:12:00,
2013-01-28 01:15:00,22.9,15.5,29.65,SE,135,5.4,5.4,73,0.00,,,0.00,WUHU216HW,2013-01-28 08:15:00,
2013-01-28 01:17:00,23.0,15.7,29.65,SE,135,4.3,5.4,73,0.00,,,0.00,WUHU216HW,2013-01-28 08:17:00,
2013-01-28 01:20:00,22.9,15.2,29.65,SE,135,1.8,5.4,72,0.00,,,0.00,WUHU216HW,2013-01-28 08:20:00,
2013-01-28 01:21:00,22.9,15.2,29.65,SE,135,1.3,5.4,72,0.00,,,0.00,WUHU216HW,2013-01-28 08:21:00,
2013-01-28 01:22:00,22.9,15.2,29.65,SE,135,2.5,5.4,72,0.00,,,0.00,WUHU216HW,2013-01-28 08:22:00,
2013-01-28 01:25:00,22.9,15.2,29.65,ESE,113,1.1,5.4,72,0.00,,,0.00,WUHU216HW,2013-01-28 08:25:00,
2013-01-28 01:26:00,22.9,15.2,29.64,ESE,113,1.3,4.7,72,0.00,,,0.00,WUHU216HW,2013-01-28 08:26:00,
2013-01-28 01:27:00,22.7,15.3,29.64,East,90,1.3,3.6,73,0.00,,,0.00,WUHU216HW,2013-01-28 08:27:00,
2013-01-28 01:30:00,22.7,15.0,29.64,ESE,113,1.1,2.9,72,0.00,,,0.00,WUHU216HW,2013-01-28 08:30:00,
2013-01-28 01:31:00,22.7,15.0,29.64,ESE,113,1.8,2.9,72,0.00,,,0.00,WUHU216HW,2013-01-28 08:31:00,
2013-01-28 01:32:00,22.7,15.0,29.64,ESE,113,3.4,3.4,72,0.00,,,0.00,WUHU216HW,2013-01-28 08:32:00,
2013-01-28 01:35:00,22.5,14.9,29.64,ESE,113,1.8,3.4,72,0.00,,,0.00,WUHU216HW,2013-01-28 08:35:00,
2013-01-28 01:36:00,22.5,14.9,29.64,SE,135,1.8,3.4,72,0.00,,,0.00,WUHU216HW,2013-01-28 08:36:00,
2013-01-28 01:38:00,22.5,14.9,29.64,SE,135,2.9,3.4,72,0.00,,,0.00,WUHU216HW,2013-01-28 08:38:00,
2013-01-28 01:40:00,22.5,15.1,29.64,SE,135,2.0,4.3,73,0.00,,,0.00,WUHU216HW,2013-01-28 08:40:00,
2013-01-28 01:41:00,22.5,15.1,29.64,SE,135,1.6,4.3,73,0.00,,,0.00,WUHU216HW,2013-01-28 08:41:00,
2013-01-28 01:43:00,22.5,15.1,29.64,SSE,158,2.5,4.3,73,0.00,,,0.00,WUHU216HW,2013-01-28 08:43:00,
2013-01-28 01:45:00,22.5,15.1,29.64,SE,135,3.4,4.3,73,0.00,,,0.00,WUHU216HW,2013-01-28 08:45:00,
2013-01-28 01:46:00,22.5,15.1,29.64,SE,135,2.5,4.3,73,0.00,,,0.00,WUHU216HW,2013-01-28 08:46:00,
2013-01-28 01:48:00,22.5,15.1,29.64,SE,135,3.6,4.3,73,0.00,,,0.00,WUHU216HW,2013-01-28 08:48:00,
2013-01-28 01:51:00,22.7,15.3,29.64,ESE,113,2.0,4.0,73,0.00,,,0.00,WUHU216HW,2013-01-28 08:51:00,
2013-01-28 01:52:00,22.7,15.3,29.65,SE,135,2.5,4.0,73,0.00,,,0.00,WUHU216HW,2013-01-28 08:52:00,
2013-01-28 01:53:00,22.7,15.3,29.65,SE,135,2.9,4.0,73,0.00,,,0.00,WUHU216HW,2013-01-28 08:53:00,
2013-01-28 01:56:00,22.5,15.1,29.64,SE,135,4.3,4.3,73,0.00,,,0.00,WUHU216HW,2013-01-28 08:56:00,
2013-01-28 01:57:00,22.7,15.3,29.65,SE,135,4.5,5.1,73,0.00,,,0.00,WUHU216HW,2013-01-28 08:57:00,
2013-01-28 01:58:00,22.7,15.7,29.64,SE,135,4.3,5.1,74,0.00,,,0.00,WUHU216HW,2013-01-28 08:58:00,
2013-01-28 02:01:00,22.7,15.7,29.64,SE,135,4.0,5.1,74,0.00,,,0.00,WUHU216HW,2013-01-28 09:01:00,
2013-01-28 02:02:00,22.7,15.7,29.64,SE,135,3.1,5.1,74,0.00,,,0.00,WUHU216HW,2013-01-28 09:02:00,
2013-01-28 02:03:00,22.7,15.7,29.64,SSE,158,0.4,5.1,74,0.00,,,0.00,WUHU216HW,2013-01-28 09:03:00,
2013-01-28 02:06:00,22.7,16.2,29.65,NNW,338,3.4,5.1,76,0.00,,,0.00,WUHU216HW,2013-01-28 09:06:00,
2013-01-28 02:07:00,22.5,15.8,29.65,NW,315,2.5,5.1,75,0.00,,,0.00,WUHU216HW,2013-01-28 09:07:00,
2013-01-28 02:08:00,22.5,15.8,29.65,NNW,338,0.7,5.1,75,0.00,,,0.00,WUHU216HW,2013-01-28 09:08:00,
2013-01-28 02:11:00,22.5,15.8,29.65,SSW,203,2.5,4.3,75,0.00,,,0.00,WUHU216HW,2013-01-28 09:11:00,
2013-01-28 02:12:00,22.5,15.8,29.65,South,180,3.8,4.0,75,0.00,,,0.00,WUHU216HW,2013-01-28 09:12:00,
2013-01-28 02:13:00,22.5,15.8,29.65,South,180,4.7,5.1,75,0.00,,,0.00,WUHU216HW,2013-01-28 09:13:00,
2013-01-28 02:16:00,22.5,15.8,29.65,SSE,158,3.6,5.1,75,0.00,,,0.00,WUHU216HW,2013-01-28 09:16:00,
2013-01-28 02:17:00,22.5,15.8,29.65,SSE,158,4.7,5.1,75,0.00,,,0.00,WUHU216HW,2013-01-28 09:17:00,
2013-01-28 02:18:00,22.5,15.8,29.65,SE,135,3.6,5.1,75,0.00,,,0.00,WUHU216HW,2013-01-28 09:18:00,
2013-01-28 02:21:00,22.5,15.8,29.65,WSW,248,0.7,5.1,75,0.00,,,0.00,WUHU216HW,2013-01-28 09:21:00,
2013-01-28 02:22:00,22.5,15.8,29.65,West,270,1.3,5.1,75,0.00,,,0.00,WUHU216HW,2013-01-28 09:22:00,
2013-01-28 02:23:00,22.5,15.8,29.65,West,270,0.2,4.7,75,0.00,,,0.00,WUHU216HW,2013-01-28 09:23:00,
2013-01-28 02:27:00,22.3,15.6,29.65,WSW,248,3.1,4.7,75,0.00,,,0.00,WUHU216HW,2013-01-28 09:27:00,
2013-01-28 02:28:00,22.3,15.6,29.65,WSW,248,3.4,4.5,75,0.00,,,0.00,WUHU216HW,2013-01-28 09:28:00,
2013-01-28 02:32:00,22.5,15.8,29.65,SSE,158,3.8,3.8,75,0.00,,,0.00,WUHU216HW,2013-01-28 09:32:00,
2013-01-28 02:33:00,22.5,15.8,29.65,SSE,158,4.0,5.4,75,0.00,,,0.00,WUHU216HW,2013-01-28 09:33:00,
2013-01-28 02:37:00,22.7,15.9,29.65,South,180,2.9,5.4,75,0.00,,,0.00,WUHU216HW,2013-01-28 09:37:00,
2013-01-28 02:38:00,22.7,15.9,29.65,SSW,203,0.9,5.4,75,0.00,,,0.00,WUHU216HW,2013-01-28 09:38:00,
2013-01-28 02:39:00,22.7,15.7,29.65,SSW,203,0.9,5.4,74,0.00,,,0.00,WUHU216HW,2013-01-28 09:39:00,
2013-01-28 02:42:00,22.9,15.9,29.65,WSW,248,2.5,5.4,74,0.00,,,0.00,WUHU216HW,2013-01-28 09:42:00,
2013-01-28 02:44:00,22.9,15.9,29.65,SSW,203,1.3,4.0,74,0.00,,,0.00,WUHU216HW,2013-01-28 09:44:00,
2013-01-28 02:47:00,22.9,15.9,29.65,WSW,248,1.8,2.5,74,0.00,,,0.00,WUHU216HW,2013-01-28 09:47:00,
2013-01-28 02:48:00,22.9,15.9,29.65,SSW,203,2.0,2.5,74,0.00,,,0.00,WUHU216HW,2013-01-28 09:48:00,
2013-01-28 02:49:00,22.9,15.9,29.65,SSW,203,2.0,2.5,74,0.00,,,0.00,WUHU216HW,2013-01-28 09:49:00,
2013-01-28 02:52:00,23.0,16.0,29.65,SE,135,4.5,4.5,74,0.00,,,0.00,WUHU216HW,2013-01-28 09:52:00,
2013-01-28 02:53:00,23.0,16.0,29.65,SE,135,4.7,4.7,74,0.00,,,0.00,WUHU216HW,2013-01-28 09:53:00,
2013-01-28 02:54:00,23.0,16.0,29.65,SE,135,4.0,4.7,74,0.00,,,0.00,WUHU216HW,2013-01-28 09:54:00,
2013-01-28 02:55:00,23.0,15.7,29.65,SSE,158,3.8,4.7,73,0.00,,,0.00,WUHU216HW,2013-01-28 09:55:00,
2013-01-28 02:57:00,23.4,16.0,29.64,SSE,158,3.8,4.9,73,0.00,,,0.00,WUHU216HW,2013-01-28 09:57:00,
2013-01-28 02:58:00,23.4,16.0,29.64,SSE,158,4.3,4.9,73,0.00,,,0.00,WUHU216HW,2013-01-28 09:58:00,
2013-01-28 02:59:00,23.4,16.0,29.65,SSE,158,3.4,4.9,73,0.00,,,0.00,WUHU216HW,2013-01-28 09:59:00,
2013-01-28 03:00:00,23.4,16.0,29.65,SW,225,2.5,4.9,73,0.00,,,0.00,WUHU216HW,2013-01-28 10:00:00,
2013-01-28 03:03:00,23.4,16.0,29.65,SSE,158,1.1,4.9,73,0.00,,,0.00,WUHU216HW,2013-01-28 10:03:00,
2013-01-28 03:04:00,23.4,16.0,29.65,South,180,1.3,4.9,73,0.00,,,0.00,WUHU216HW,2013-01-28 10:04:00,
2013-01-28 03:05:00,23.4,16.0,29.65,South,180,1.3,4.9,73,0.00,,,0.00,WUHU216HW,2013-01-28 10:05:00,
2013-01-28 03:08:00,23.4,16.0,29.65,SSW,203,0.7,4.3,73,0.00,,,0.00,WUHU216HW,2013-01-28 10:08:00,
2013-01-28 03:10:00,23.4,15.7,29.65,SW,225,1.1,2.5,72,0.00,,,0.00,WUHU216HW,2013-01-28 10:10:00,
2013-01-28 03:13:00,23.4,15.7,29.64,SSE,158,4.5,5.6,72,0.00,,,0.00,WUHU216HW,2013-01-28 10:13:00,
2013-01-28 03:15:00,23.4,15.7,29.64,SW,225,2.5,5.6,72,0.00,,,0.00,WUHU216HW,2013-01-28 10:15:00,
2013-01-28 03:18:00,23.4,15.7,29.64,SE,135,4.0,5.6,72,0.00,,,0.00,WUHU216HW,2013-01-28 10:18:00,
2013-01-28 03:20:00,23.4,15.7,29.64,SW,225,1.1,5.6,72,0.00,,,0.00,WUHU216HW,2013-01-28 10:20:00,
2013-01-28 03:23:00,23.4,15.7,29.64,SW,225,3.1,4.5,72,0.00,,,0.00,WUHU216HW,2013-01-28 10:23:00,
2013-01-28 03:25:00,23.4,15.7,29.64,SW,225,1.8,4.5,72,0.00,,,0.00,WUHU216HW,2013-01-28 10:25:00,
2013-01-28 03:28:00,23.0,15.0,29.64,SSW,203,1.8,4.0,71,0.00,,,0.00,WUHU216HW,2013-01-28 10:28:00,
2013-01-28 03:30:00,23.0,15.0,29.64,SW,225,1.3,4.0,71,0.00,,,0.00,WUHU216HW,2013-01-28 10:30:00,
2013-01-28 03:31:00,22.9,14.9,29.64,SSW,203,1.6,4.0,71,0.00,,,0.00,WUHU216HW,2013-01-28 10:31:00,
2013-01-28 03:33:00,22.7,14.7,29.64,SE,135,0.7,4.0,71,0.00,,,0.00,WUHU216HW,2013-01-28 10:33:00,
2013-01-28 03:34:00,22.7,14.7,29.64,SE,135,0.4,4.0,71,0.00,,,0.00,WUHU216HW,2013-01-28 10:34:00,
2013-01-28 03:35:00,22.7,14.7,29.64,SE,135,0.0,4.0,71,0.00,,,0.00,WUHU216HW,2013-01-28 10:35:00,
2013-01-28 03:36:00,22.7,14.7,29.64,SE,135,0.0,4.0,71,0.00,,,0.00,WUHU216HW,2013-01-28 10:36:00,
2013-01-28 03:39:00,22.7,14.7,29.64,SSE,158,0.2,2.5,71,0.00,,,0.00,WUHU216HW,2013-01-28 10:39:00,
2013-01-28 03:40:00,22.7,14.7,29.64,SSE,158,0.0,2.5,71,0.00,,,0.00,WUHU216HW,2013-01-28 10:40:00,
2013-01-28 03:41:00,22.7,14.7,29.64,SW,225,0.4,2.5,71,0.00,,,0.00,WUHU216HW,2013-01-28 10:41:00,
2013-01-28 03:44:00,22.9,14.9,29.64,ENE,68,0.4,2.5,71,0.00,,,0.00,WUHU216HW,2013-01-28 10:44:00,
2013-01-28 03:45:00,23.0,14.8,29.64,ENE,68,0.2,2.5,70,0.00,,,0.00,WUHU216HW,2013-01-28 10:45:00,
2013-01-28 03:46:00,23.0,14.8,29.64,NE,45,1.1,2.5,70,0.00,,,0.00,WUHU216HW,2013-01-28 10:46:00,
2013-01-28 03:49:00,23.2,15.0,29.64,NNE,23,1.3,1.3,70,0.00,,,0.00,WUHU216HW,2013-01-28 10:49:00,
2013-01-28 03:50:00,23.4,15.1,29.64,NNE,23,0.0,1.3,70,0.00,,,0.00,WUHU216HW,2013-01-28 10:50:00,
2013-01-28 03:51:00,23.4,15.1,29.64,NNE,23,0.0,1.3,70,0.00,,,0.00,WUHU216HW,2013-01-28 10:51:00,
2013-01-28 03:54:00,23.4,15.1,29.64,East,90,3.4,3.6,70,0.00,,,0.00,WUHU216HW,2013-01-28 10:54:00,
2013-01-28 03:55:00,23.6,14.6,29.64,NNW,338,1.1,4.7,68,0.00,,,0.00,WUHU216HW,2013-01-28 10:55:00,
2013-01-28 03:56:00,23.6,14.9,29.64,NW,315,2.0,4.7,69,0.00,,,0.00,WUHU216HW,2013-01-28 10:56:00,
2013-01-28 03:59:00,23.6,14.9,29.64,NNE,23,1.6,4.7,69,0.00,,,0.00,WUHU216HW,2013-01-28 10:59:00,
2013-01-28 04:00:00,23.4,14.8,29.64,NE,45,3.4,4.7,69,0.00,,,0.00,WUHU216HW,2013-01-28 11:00:00,
2013-01-28 04:01:00,23.4,14.4,29.64,East,90,2.5,4.7,68,0.00,,,0.00,WUHU216HW,2013-01-28 11:01:00,
2013-01-28 04:04:00,23.4,14.8,29.64,East,90,2.9,4.7,69,0.00,,,0.00,WUHU216HW,2013-01-28 11:04:00,
2013-01-28 04:06:00,23.4,14.8,29.64,NW,315,3.8,4.5,69,0.00,,,0.00,WUHU216HW,2013-01-28 11:06:00,
2013-01-28 04:09:00,23.4,16.0,29.64,NNE,23,4.9,6.9,73,0.00,,,0.00,WUHU216HW,2013-01-28 11:09:00,
2013-01-28 04:11:00,23.0,16.3,29.64,NNE,23,5.8,6.9,75,0.00,,,0.00,WUHU216HW,2013-01-28 11:11:00,
2013-01-28 04:14:00,21.8,15.7,29.65,North,0,0.9,6.9,77,0.00,,,0.00,WUHU216HW,2013-01-28 11:14:00,
2013-01-28 04:15:00,21.6,15.5,29.65,North,0,0.4,6.9,77,0.00,,,0.00,WUHU216HW,2013-01-28 11:15:00,
2013-01-28 04:16:00,21.4,15.3,29.64,North,0,0.4,6.9,77,0.00,,,0.00,WUHU216HW,2013-01-28 11:16:00,
2013-01-28 04:20:00,21.2,14.8,29.65,North,0,0.4,6.0,76,0.00,,,0.00,WUHU216HW,2013-01-28 11:20:00,
2013-01-28 04:21:00,21.2,14.8,29.65,North,0,0.4,5.4,76,0.00,,,0.00,WUHU216HW,2013-01-28 11:21:00,
2013-01-28 04:25:00,21.2,14.8,29.65,WNW,293,2.0,2.0,76,0.00,,,0.00,WUHU216HW,2013-01-28 11:25:00,
2013-01-28 04:26:00,21.2,15.1,29.65,West,270,2.0,2.5,77,0.00,,,0.00,WUHU216HW,2013-01-28 11:26:00,
2013-01-28 04:30:00,21.1,14.6,29.65,West,270,1.1,2.5,76,0.00,,,0.00,WUHU216HW,2013-01-28 11:30:00,
2013-01-28 04:31:00,21.1,14.6,29.65,WSW,248,2.2,2.5,76,0.00,,,0.00,WUHU216HW,2013-01-28 11:31:00,
2013-01-28 04:35:00,21.2,14.8,29.65,SW,225,2.7,3.6,76,0.00,,,0.00,WUHU216HW,2013-01-28 11:35:00,
2013-01-28 04:36:00,21.2,14.8,29.65,SW,225,2.2,3.6,76,0.00,,,0.00,WUHU216HW,2013-01-28 11:36:00,
2013-01-28 04:37:00,21.2,14.8,29.65,SW,225,1.8,3.6,76,0.00,,,0.00,WUHU216HW,2013-01-28 11:37:00,
2013-01-28 04:40:00,21.2,15.1,29.65,SSW,203,2.9,3.6,77,0.00,,,0.00,WUHU216HW,2013-01-28 11:40:00,
2013-01-28 04:41:00,21.2,15.1,29.65,SSW,203,3.4,3.6,77,0.00,,,0.00,WUHU216HW,2013-01-28 11:41:00,
2013-01-28 04:42:00,21.4,15.3,29.65,SW,225,2.0,3.6,77,0.00,,,0.00,WUHU216HW,2013-01-28 11:42:00,
2013-01-28 04:45:00,21.6,15.5,29.65,SW,225,3.6,3.6,77,0.00,,,0.00,WUHU216HW,2013-01-28 11:45:00,
2013-01-28 04:46:00,21.6,15.5,29.64,WSW,248,3.4,3.6,77,0.00,,,0.00,WUHU216HW,2013-01-28 11:46:00,
2013-01-28 04:47:00,21.6,15.5,29.65,WSW,248,3.4,3.6,77,0.00,,,0.00,WUHU216HW,2013-01-28 11:47:00,
2013-01-28 04:50:00,21.8,15.7,29.64,SW,225,2.7,3.6,77,0.00,,,0.00,WUHU216HW,2013-01-28 11:50:00,
2013-01-28 04:51:00,21.8,15.7,29.64,WSW,248,2.2,3.6,77,0.00,,,0.00,WUHU216HW,2013-01-28 11:51:00,
2013-01-28 04:52:00,21.8,15.3,29.64,WSW,248,2.2,3.6,76,0.00,,,0.00,WUHU216HW,2013-01-28 11:52:00,
2013-01-28 04:55:00,21.8,15.3,29.65,WSW,248,2.7,3.4,76,0.00,,,0.00,WUHU216HW,2013-01-28 11:55:00,
2013-01-28 04:56:00,21.8,15.3,29.64,WSW,248,3.1,3.4,76,0.00,,,0.00,WUHU216HW,2013-01-28 11:56:00,
2013-01-28 04:57:00,21.8,15.3,29.64,WSW,248,2.9,3.4,76,0.00,,,0.00,WUHU216HW,2013-01-28 11:57:00,
2013-01-28 05:00:00,21.8,15.0,29.64,WSW,248,2.2,3.8,75,0.00,,,0.00,WUHU216HW,2013-01-28 12:00:00,
2013-01-28 05:01:00,21.8,15.0,29.64,WSW,248,2.0,3.8,75,0.00,,,0.00,WUHU216HW,2013-01-28 12:01:00,
2013-01-28 05:02:00,21.8,15.0,29.64,WSW,248,2.0,3.8,75,0.00,,,0.00,WUHU216HW,2013-01-28 12:02:00,
2013-01-28 05:05:00,21.6,14.9,29.64,WSW,248,2.5,3.8,75,0.00,,,0.00,WUHU216HW,2013-01-28 12:05:00,
2013-01-28 05:06:00,21.6,14.9,29.64,WSW,248,2.0,3.8,75,0.00,,,0.00,WUHU216HW,2013-01-28 12:06:00,
2013-01-28 05:07:00,21.6,14.9,29.64,WSW,248,1.8,3.8,75,0.00,,,0.00,WUHU216HW,2013-01-28 12:07:00,
2013-01-28 05:10:00,21.6,14.6,29.64,WSW,248,2.0,3.1,74,0.00,,,0.00,WUHU216HW,2013-01-28 12:10:00,
2013-01-28 05:11:00,21.4,14.4,29.64,WSW,248,2.0,3.1,74,0.00,,,0.00,WUHU216HW,2013-01-28 12:11:00,
2013-01-28 05:12:00,21.4,14.4,29.64,WSW,248,2.0,3.1,74,0.00,,,0.00,WUHU216HW,2013-01-28 12:12:00,
2013-01-28 05:15:00,21.4,14.4,29.64,WSW,248,1.8,2.5,74,0.00,,,0.00,WUHU216HW,2013-01-28 12:15:00,
2013-01-28 05:16:00,21.4,14.4,29.64,WSW,248,1.8,2.5,74,0.00,,,0.00,WUHU216HW,2013-01-28 12:16:00,
2013-01-28 05:17:00,21.4,14.4,29.64,WSW,248,2.5,2.5,74,0.00,,,0.00,WUHU216HW,2013-01-28 12:17:00,
2013-01-28 05:21:00,21.4,14.4,29.64,WSW,248,4.0,4.0,74,0.00,,,0.00,WUHU216HW,2013-01-28 12:21:00,
2013-01-28 05:22:00,21.4,14.0,29.64,WSW,248,3.4,4.0,73,0.00,,,0.00,WUHU216HW,2013-01-28 12:22:00,
2013-01-28 05:26:00,21.4,14.0,29.64,WSW,248,2.2,4.3,73,0.00,,,0.00,WUHU216HW,2013-01-28 12:26:00,
2013-01-28 05:27:00,21.4,14.0,29.64,WSW,248,2.2,4.3,73,0.00,,,0.00,WUHU216HW,2013-01-28 12:27:00,
2013-01-28 05:32:00,21.8,14.4,29.64,WSW,248,2.0,4.3,73,0.00,,,0.00,WUHU216HW,2013-01-28 12:32:00,
2013-01-28 05:37:00,21.8,14.4,29.64,West,270,1.3,3.4,73,0.00,,,0.00,WUHU216HW,2013-01-28 12:37:00,
2013-01-28 05:42:00,22.0,14.3,29.64,WSW,248,4.3,5.1,72,0.00,,,0.00,WUHU216HW,2013-01-28 12:42:00,
2013-01-28 05:47:00,21.8,14.1,29.64,SSW,203,2.5,5.1,72,0.00,,,0.00,WUHU216HW,2013-01-28 12:47:00,
2013-01-28 05:52:00,21.8,14.1,29.64,WSW,248,3.6,4.5,72,0.00,,,0.00,WUHU216HW,2013-01-28 12:52:00,
2013-01-28 05:57:00,21.4,13.8,29.64,WSW,248,2.5,3.8,72,0.00,,,0.00,WUHU216HW,2013-01-28 12:57:00,
2013-01-28 06:02:00,21.2,13.6,29.64,West,270,4.3,4.3,72,0.00,,,0.00,WUHU216HW,2013-01-28 13:02:00,
2013-01-28 06:03:00,21.2,13.2,29.64,West,270,3.1,4.3,71,0.00,,,0.00,WUHU216HW,2013-01-28 13:03:00,
2013-01-28 06:07:00,21.1,13.1,29.64,WSW,248,2.5,4.3,71,0.00,,,0.00,WUHU216HW,2013-01-28 13:07:00,
2013-01-28 06:08:00,21.1,13.1,29.64,WSW,248,2.5,4.3,71,0.00,,,0.00,WUHU216HW,2013-01-28 13:08:00,
2013-01-28 06:12:00,20.9,12.9,29.64,West,270,0.7,4.3,71,0.00,,,0.00,WUHU216HW,2013-01-28 13:12:00,
2013-01-28 06:13:00,20.9,12.9,29.64,West,270,0.7,4.3,71,0.00,,,0.00,WUHU216HW,2013-01-28 13:13:00,
2013-01-28 06:18:00,20.9,12.9,29.64,West,270,2.5,3.6,71,0.00,,,0.00,WUHU216HW,2013-01-28 13:18:00,
2013-01-28 06:23:00,20.9,12.9,29.64,WSW,248,0.7,4.3,71,0.00,,,0.00,WUHU216HW,2013-01-28 13:23:00,
2013-01-28 06:28:00,21.1,13.1,29.64,North,0,1.1,4.3,71,0.00,,,0.00,WUHU216HW,2013-01-28 13:28:00,
2013-01-28 06:33:00,21.2,13.2,29.65,NW,315,4.5,4.7,71,0.00,,,0.00,WUHU216HW,2013-01-28 13:33:00,
2013-01-28 06:34:00,21.2,13.2,29.64,NNW,338,3.6,4.7,71,0.00,,,0.00,WUHU216HW,2013-01-28 13:34:00,
2013-01-28 06:38:00,21.2,13.2,29.64,NW,315,0.0,4.7,71,0.00,,,0.00,WUHU216HW,2013-01-28 13:38:00,
2013-01-28 06:39:00,21.2,13.2,29.64,SE,135,1.1,4.7,71,0.00,,,0.00,WUHU216HW,2013-01-28 13:39:00,
2013-01-28 06:43:00,21.2,13.6,29.64,West,270,4.5,4.5,72,0.00,,,0.00,WUHU216HW,2013-01-28 13:43:00,
2013-01-28 06:44:00,21.2,13.2,29.64,West,270,5.4,5.4,71,0.00,,,0.00,WUHU216HW,2013-01-28 13:44:00,
2013-01-28 06:48:00,21.6,13.6,29.64,NW,315,1.1,5.4,71,0.00,,,0.00,WUHU216HW,2013-01-28 13:48:00,
2013-01-28 06:49:00,21.6,13.6,29.64,WNW,293,0.4,5.4,71,0.00,,,0.00,WUHU216HW,2013-01-28 13:49:00,
2013-01-28 06:53:00,21.8,13.8,29.64,West,270,4.3,5.4,71,0.00,,,0.00,WUHU216HW,2013-01-28 13:53:00,
2013-01-28 06:54:00,21.8,13.8,29.64,West,270,4.3,5.4,71,0.00,,,0.00,WUHU216HW,2013-01-28 13:54:00,
2013-01-28 06:58:00,22.0,13.3,29.64,SW,225,2.9,6.3,69,0.00,,,0.00,WUHU216HW,2013-01-28 13:58:00,
2013-01-28 06:59:00,22.0,13.3,29.64,SW,225,2.5,6.3,69,0.00,,,0.00,WUHU216HW,2013-01-28 13:59:00,
2013-01-28 07:03:00,22.0,13.3,29.64,WSW,248,6.3,6.3,69,0.00,,,0.00,WUHU216HW,2013-01-28 14:03:00,
2013-01-28 07:04:00,22.0,13.3,29.64,WSW,248,6.3,6.3,69,0.00,,,0.00,WUHU216HW,2013-01-28 14:04:00,
2013-01-28 07:08:00,21.6,13.0,29.64,WSW,248,4.5,6.5,69,0.00,,,0.00,WUHU216HW,2013-01-28 14:08:00,
2013-01-28 07:09:00,21.6,13.0,29.64,WSW,248,4.5,6.5,69,0.00,,,0.00,WUHU216HW,2013-01-28 14:09:00,
2013-01-28 07:13:00,21.6,13.0,29.64,WSW,248,1.1,6.5,69,0.00,,,0.00,WUHU216HW,2013-01-28 14:13:00,
2013-01-28 07:14:00,21.6,13.0,29.64,WSW,248,1.3,6.5,69,0.00,,,0.00,WUHU216HW,2013-01-28 14:14:00,
2013-01-28 07:15:00,21.6,13.0,29.64,SW,225,1.3,6.3,69,0.00,,,0.00,WUHU216HW,2013-01-28 14:15:00,
2013-01-28 07:19:00,21.6,13.3,29.64,SSE,158,3.8,5.6,70,0.00,,,0.00,WUHU216HW,2013-01-28 14:19:00,
2013-01-28 07:20:00,21.6,13.6,29.64,SSE,158,3.4,5.6,71,0.00,,,0.00,WUHU216HW,2013-01-28 14:20:00,
2013-01-28 07:24:00,21.4,13.4,29.64,SSW,203,1.3,5.6,71,0.00,,,0.00,WUHU216HW,2013-01-28 14:24:00,
2013-01-28 07:25:00,21.4,13.4,29.64,SSW,203,2.0,5.6,71,0.00,,,0.00,WUHU216HW,2013-01-28 14:25:00,
2013-01-28 07:29:00,21.2,13.6,29.64,South,180,1.8,4.3,72,0.00,,,0.00,WUHU216HW,2013-01-28 14:29:00,
2013-01-28 07:30:00,21.2,13.6,29.64,South,180,1.8,3.8,72,0.00,,,0.00,WUHU216HW,2013-01-28 14:30:00,
2013-01-28 07:34:00,21.2,13.6,29.64,SW,225,0.7,2.0,72,0.00,,,0.00,WUHU216HW,2013-01-28 14:34:00,
2013-01-28 07:35:00,21.2,13.6,29.64,SW,225,0.4,2.0,72,0.00,,,0.00,WUHU216HW,2013-01-28 14:35:00,
2013-01-28 07:39:00,21.2,13.6,29.64,SW,225,0.0,1.8,72,0.00,,,0.00,WUHU216HW,2013-01-28 14:39:00,
2013-01-28 07:40:00,21.2,13.6,29.64,SW,225,0.7,1.8,72,0.00,,,0.00,WUHU216HW,2013-01-28 14:40:00,
2013-01-28 07:44:00,21.2,14.2,29.65,NNE,23,2.5,2.5,74,0.00,,,0.00,WUHU216HW,2013-01-28 14:44:00,
2013-01-28 07:45:00,21.2,14.2,29.65,NNE,23,2.5,2.5,74,0.00,,,0.00,WUHU216HW,2013-01-28 14:45:00,
2013-01-28 07:49:00,20.9,14.4,29.65,North,0,0.7,2.5,76,0.00,,,0.00,WUHU216HW,2013-01-28 14:49:00,
2013-01-28 07:50:00,20.9,14.4,29.65,North,0,1.3,2.5,76,0.00,,,0.00,WUHU216HW,2013-01-28 14:50:00,
2013-01-28 07:51:00,20.9,14.4,29.65,North,0,0.9,2.5,76,0.00,,,0.00,WUHU216HW,2013-01-28 14:51:00,
2013-01-28 07:55:00,20.7,14.0,29.64,North,0,0.0,2.5,75,0.00,,,0.00,WUHU216HW,2013-01-28 14:55:00,
2013-01-28 07:56:00,20.7,14.0,29.64,North,0,0.0,1.6,75,0.00,,,0.00,WUHU216HW,2013-01-28 14:56:00,
2013-01-28 08:00:00,20.5,14.4,29.64,NW,315,4.3,4.5,77,0.00,,,0.00,WUHU216HW,2013-01-28 15:00:00,
2013-01-28 08:01:00,20.5,14.4,29.64,WNW,293,3.6,4.5,77,0.00,,,0.00,WUHU216HW,2013-01-28 15:01:00,
2013-01-28 08:05:00,20.5,14.4,29.64,NW,315,2.0,4.5,77,0.00,,,0.00,WUHU216HW,2013-01-28 15:05:00,
2013-01-28 08:06:00,20.5,14.4,29.64,NW,315,2.2,4.5,77,0.00,,,0.00,WUHU216HW,2013-01-28 15:06:00,
2013-01-28 08:10:00,20.7,14.6,29.64,WNW,293,2.7,4.0,77,0.00,,,0.00,WUHU216HW,2013-01-28 15:10:00,
2013-01-28 08:11:00,20.5,14.4,29.64,WNW,293,2.7,3.6,77,0.00,,,0.00,WUHU216HW,2013-01-28 15:11:00,
2013-01-28 08:15:00,20.9,14.4,29.64,West,270,0.4,3.4,76,0.00,,,0.00,WUHU216HW,2013-01-28 15:15:00,
2013-01-28 08:16:00,20.9,14.4,29.64,West,270,0.7,3.4,76,0.00,,,0.00,WUHU216HW,2013-01-28 15:16:00,
2013-01-28 08:17:00,20.9,14.4,29.64,WSW,248,1.1,3.4,76,0.00,,,0.00,WUHU216HW,2013-01-28 15:17:00,
2013-01-28 08:20:00,21.1,14.6,29.64,WSW,248,0.7,3.4,76,0.00,,,0.00,WUHU216HW,2013-01-28 15:20:00,
2013-01-28 08:21:00,21.1,14.6,29.64,WSW,248,0.9,3.4,76,0.00,,,0.00,WUHU216HW,2013-01-28 15:21:00,
2013-01-28 08:22:00,21.1,14.6,29.64,WSW,248,0.7,3.4,76,0.00,,,0.00,WUHU216HW,2013-01-28 15:22:00,
2013-01-28 08:25:00,21.2,15.1,29.64,North,0,1.1,3.1,77,0.00,,,0.00,WUHU216HW,2013-01-28 15:25:00,
2013-01-28 08:26:00,21.2,15.1,29.64,NNW,338,0.7,3.1,77,0.00,,,0.00,WUHU216HW,2013-01-28 15:26:00,
2013-01-28 08:27:00,21.2,15.1,29.64,North,0,1.1,3.1,77,0.00,,,0.00,WUHU216HW,2013-01-28 15:27:00,
2013-01-28 08:31:00,21.4,14.9,29.64,North,0,0.7,2.0,76,0.00,,,0.00,WUHU216HW,2013-01-28 15:31:00,
2013-01-28 08:32:00,21.4,14.9,29.64,North,0,0.9,2.0,76,0.00,,,0.00,WUHU216HW,2013-01-28 15:32:00,
2013-01-28 08:36:00,21.6,15.1,29.64,NNW,338,0.0,1.8,76,0.00,,,0.00,WUHU216HW,2013-01-28 15:36:00,
2013-01-28 08:37:00,21.8,15.3,29.64,NNW,338,0.4,1.8,76,0.00,,,0.00,WUHU216HW,2013-01-28 15:37:00,
2013-01-28 08:41:00,22.0,15.2,29.64,NNE,23,0.0,3.1,75,0.00,,,0.00,WUHU216HW,2013-01-28 15:41:00,
2013-01-28 08:42:00,22.0,15.2,29.64,NNE,23,0.0,3.1,75,0.00,,,0.00,WUHU216HW,2013-01-28 15:42:00,
2013-01-28 08:46:00,21.8,15.7,29.65,NNE,23,3.6,5.8,77,0.00,,,0.00,WUHU216HW,2013-01-28 15:46:00,
2013-01-28 08:47:00,21.6,15.5,29.65,NE,45,2.9,5.8,77,0.00,,,0.00,WUHU216HW,2013-01-28 15:47:00,
2013-01-28 08:51:00,21.2,15.4,29.64,ENE,68,6.0,7.6,78,0.00,,,0.00,WUHU216HW,2013-01-28 15:51:00,
2013-01-28 08:52:00,21.2,15.4,29.64,NE,45,5.4,7.6,78,0.00,,,0.00,WUHU216HW,2013-01-28 15:52:00,
2013-01-28 08:53:00,21.2,15.4,29.64,ENE,68,3.8,7.6,78,0.00,,,0.00,WUHU216HW,2013-01-28 15:53:00,
2013-01-28 08:57:00,20.9,15.0,29.65,North,0,4.9,7.6,78,0.00,,,0.00,WUHU216HW,2013-01-28 15:57:00,
2013-01-28 08:58:00,20.7,15.2,29.64,NNE,23,4.7,7.6,79,0.00,,,0.00,WUHU216HW,2013-01-28 15:58:00,
2013-01-28 09:02:00,20.5,15.3,29.64,NE,45,2.5,6.0,80,0.00,,,0.00,WUHU216HW,2013-01-28 16:02:00,
2013-01-28 09:04:00,20.7,15.5,29.64,North,0,2.0,6.0,80,0.00,,,0.00,WUHU216HW,2013-01-28 16:04:00,
2013-01-28 09:07:00,20.5,15.3,29.64,WNW,293,4.7,4.9,80,0.00,,,0.00,WUHU216HW,2013-01-28 16:07:00,
2013-01-28 09:09:00,20.5,15.0,29.64,WNW,293,0.2,4.9,79,0.00,,,0.00,WUHU216HW,2013-01-28 16:09:00,
2013-01-28 09:12:00,20.7,15.2,29.64,ENE,68,4.0,4.9,79,0.00,,,0.00,WUHU216HW,2013-01-28 16:12:00,
2013-01-28 09:13:00,20.7,15.5,29.64,ENE,68,4.0,4.9,80,0.00,,,0.00,WUHU216HW,2013-01-28 16:13:00,
2013-01-28 09:14:00,20.9,15.7,29.64,NNW,338,0.4,4.9,80,0.00,,,0.00,WUHU216HW,2013-01-28 16:14:00,
2013-01-28 09:17:00,21.2,15.8,29.64,NNW,338,0.4,4.7,79,0.00,,,0.00,WUHU216HW,2013-01-28 16:17:00,
2013-01-28 09:18:00,21.2,15.8,29.64,NNW,338,0.4,4.7,79,0.00,,,0.00,WUHU216HW,2013-01-28 16:18:00,
2013-01-28 09:19:00,21.2,15.8,29.64,ESE,113,0.9,4.7,79,0.00,,,0.00,WUHU216HW,2013-01-28 16:19:00,
2013-01-28 09:22:00,21.4,15.6,29.64,NNW,338,4.7,4.7,78,0.00,,,0.00,WUHU216HW,2013-01-28 16:22:00,
2013-01-28 09:23:00,21.4,15.6,29.64,NNW,338,6.3,6.3,78,0.00,,,0.00,WUHU216HW,2013-01-28 16:23:00,
2013-01-28 09:24:00,21.4,15.6,29.64,NNW,338,6.7,6.9,78,0.00,,,0.00,WUHU216HW,2013-01-28 16:24:00,
2013-01-28 09:27:00,21.2,15.4,29.64,North,0,2.0,6.9,78,0.00,,,0.00,WUHU216HW,2013-01-28 16:27:00,
2013-01-28 09:28:00,21.2,15.1,29.64,North,0,1.8,6.9,77,0.00,,,0.00,WUHU216HW,2013-01-28 16:28:00,
2013-01-28 09:30:00,21.2,15.4,29.64,North,0,2.7,6.9,78,0.00,,,0.00,WUHU216HW,2013-01-28 16:30:00,
2013-01-28 09:32:00,21.1,15.2,29.64,NNW,338,1.8,6.9,78,0.00,,,0.00,WUHU216HW,2013-01-28 16:32:00,
2013-01-28 09:33:00,21.1,15.2,29.64,NW,315,3.6,6.9,78,0.00,,,0.00,WUHU216HW,2013-01-28 16:33:00,
2013-01-28 09:34:00,21.2,15.4,29.65,NW,315,4.0,6.7,78,0.00,,,0.00,WUHU216HW,2013-01-28 16:34:00,
2013-01-28 09:37:00,21.2,15.1,29.65,North,0,1.3,4.0,77,0.00,,,0.00,WUHU216HW,2013-01-28 16:37:00,
2013-01-28 09:38:00,21.2,15.1,29.65,NNE,23,3.8,4.0,77,0.00,,,0.00,WUHU216HW,2013-01-28 16:38:00,
2013-01-28 09:40:00,21.2,15.1,29.65,North,0,2.7,4.7,77,0.00,,,0.00,WUHU216HW,2013-01-28 16:40:00,
2013-01-28 09:42:00,20.9,14.8,29.65,North,0,0.4,4.7,77,0.00,,,0.00,WUHU216HW,2013-01-28 16:42:00,
2013-01-28 09:43:00,20.9,14.8,29.64,North,0,0.4,4.7,77,0.00,,,0.00,WUHU216HW,2013-01-28 16:43:00,
2013-01-28 09:44:00,20.9,14.8,29.64,North,0,0.4,4.7,77,0.00,,,0.00,WUHU216HW,2013-01-28 16:44:00,
2013-01-28 09:48:00,20.7,14.6,29.65,North,0,6.5,6.5,77,0.00,,,0.00,WUHU216HW,2013-01-28 16:48:00,
2013-01-28 09:49:00,20.7,14.6,29.65,NNE,23,6.0,6.5,77,0.00,,,0.00,WUHU216HW,2013-01-28 16:49:00,
2013-01-28 09:50:00,20.7,14.6,29.64,NE,45,3.4,6.5,77,0.00,,,0.00,WUHU216HW,2013-01-28 16:50:00,
2013-01-28 09:53:00,21.1,15.0,29.65,NNW,338,3.4,6.5,77,0.00,,,0.00,WUHU216HW,2013-01-28 16:53:00,
2013-01-28 09:54:00,21.1,14.6,29.65,NNW,338,4.7,6.5,76,0.00,,,0.00,WUHU216HW,2013-01-28 16:54:00,
2013-01-28 09:55:00,21.1,14.6,29.65,NNW,338,3.8,6.5,76,0.00,,,0.00,WUHU216HW,2013-01-28 16:55:00,
2013-01-28 09:58:00,21.1,14.3,29.64,ENE,68,3.4,6.5,75,0.00,,,0.00,WUHU216HW,2013-01-28 16:58:00,
2013-01-28 09:59:00,21.1,14.3,29.64,ENE,68,2.0,6.0,75,0.00,,,0.00,WUHU216HW,2013-01-28 16:59:00,
2013-01-28 10:00:00,21.2,14.5,29.64,North,0,0.4,4.7,75,0.00,,,0.00,WUHU216HW,2013-01-28 17:00:00,
2013-01-28 10:04:00,21.6,14.9,29.65,North,0,1.8,4.7,75,0.00,,,0.00,WUHU216HW,2013-01-28 17:04:00,
2013-01-28 10:05:00,21.6,14.6,29.65,NE,45,2.2,4.0,74,0.00,,,0.00,WUHU216HW,2013-01-28 17:05:00,
2013-01-28 10:09:00,22.0,15.0,29.65,North,0,4.0,4.9,74,0.00,,,0.00,WUHU216HW,2013-01-28 17:09:00,
2013-01-28 10:10:00,22.0,15.0,29.65,North,0,4.5,4.9,74,0.00,,,0.00,WUHU216HW,2013-01-28 17:10:00,
2013-01-28 10:14:00,22.0,15.0,29.65,NNE,23,3.6,4.9,74,0.00,,,0.00,WUHU216HW,2013-01-28 17:14:00,
2013-01-28 10:15:00,22.1,15.1,29.65,North,0,5.1,5.1,74,0.00,,,0.00,WUHU216HW,2013-01-28 17:15:00,
2013-01-28 10:19:00,22.3,14.9,29.65,NNW,338,2.5,5.1,73,0.00,,,0.00,WUHU216HW,2013-01-28 17:19:00,
2013-01-28 10:20:00,22.3,14.9,29.65,NNW,338,1.8,5.1,73,0.00,,,0.00,WUHU216HW,2013-01-28 17:20:00,
2013-01-28 10:24:00,22.7,15.0,29.65,NE,45,2.9,5.1,72,0.00,,,0.00,WUHU216HW,2013-01-28 17:24:00,
2013-01-28 10:25:00,22.7,15.0,29.65,NE,45,2.7,5.1,72,0.00,,,0.00,WUHU216HW,2013-01-28 17:25:00,
2013-01-28 10:26:00,22.9,15.2,29.65,NNE,23,4.0,4.0,72,0.00,,,0.00,WUHU216HW,2013-01-28 17:26:00,
2013-01-28 10:29:00,23.0,15.0,29.65,North,0,1.8,4.5,71,0.00,,,0.00,WUHU216HW,2013-01-28 17:29:00,
2013-01-28 10:30:00,22.9,14.6,29.65,NNW,338,1.1,4.5,70,0.00,,,0.00,WUHU216HW,2013-01-28 17:30:00,
2013-01-28 10:31:00,22.9,14.6,29.65,NNW,338,0.7,4.5,70,0.00,,,0.00,WUHU216HW,2013-01-28 17:31:00,
2013-01-28 10:34:00,23.4,15.7,29.65,ENE,68,1.8,4.5,72,0.00,,,0.00,WUHU216HW,2013-01-28 17:34:00,
2013-01-28 10:35:00,23.4,15.7,29.65,ENE,68,1.1,4.5,72,0.00,,,0.00,WUHU216HW,2013-01-28 17:35:00,
2013-01-28 10:36:00,23.4,15.7,29.65,ENE,68,0.7,4.5,72,0.00,,,0.00,WUHU216HW,2013-01-28 17:36:00,
2013-01-28 10:39:00,23.9,16.2,29.65,NW,315,1.8,2.5,72,0.00,,,0.00,WUHU216HW,2013-01-28 17:39:00,
2013-01-28 10:40:00,24.1,16.0,29.65,WNW,293,2.2,2.5,71,0.00,,,0.00,WUHU216HW,2013-01-28 17:40:00,
2013-01-28 10:41:00,24.1,15.8,29.65,WNW,293,2.0,2.5,70,0.00,,,0.00,WUHU216HW,2013-01-28 17:41:00,
2013-01-28 10:44:00,24.1,15.4,29.65,NW,315,0.2,2.5,69,0.00,,,0.00,WUHU216HW,2013-01-28 17:44:00,
2013-01-28 10:45:00,24.3,15.2,29.64,NNW,338,1.8,2.5,68,0.00,,,0.00,WUHU216HW,2013-01-28 17:45:00,
2013-01-28 10:46:00,24.1,15.4,29.64,NNW,338,2.0,2.5,69,0.00,,,0.00,WUHU216HW,2013-01-28 17:46:00,
2013-01-28 10:50:00,24.7,15.8,29.65,NNW,338,2.0,3.6,69,0.00,,,0.00,WUHU216HW,2013-01-28 17:50:00,
2013-01-28 10:51:00,24.7,15.8,29.65,NNW,338,3.6,3.6,69,0.00,,,0.00,WUHU216HW,2013-01-28 17:51:00,
2013-01-28 10:55:00,24.3,15.2,29.65,North,0,1.8,3.6,68,0.00,,,0.00,WUHU216HW,2013-01-28 17:55:00,
2013-01-28 10:56:00,24.5,15.0,29.64,North,0,1.8,3.6,67,0.00,,,0.00,WUHU216HW,2013-01-28 17:56:00,
2013-01-28 10:57:00,24.5,15.4,29.64,North,0,1.8,3.6,68,0.00,,,0.00,WUHU216HW,2013-01-28 17:57:00,
2013-01-28 11:00:00,24.5,15.4,29.65,North,0,2.7,4.7,68,0.00,,,0.00,WUHU216HW,2013-01-28 18:00:00,
2013-01-28 11:01:00,24.5,15.4,29.65,North,0,2.7,4.7,68,0.00,,,0.00,WUHU216HW,2013-01-28 18:01:00,
2013-01-28 11:02:00,24.1,15.0,29.65,North,0,2.7,4.7,68,0.00,,,0.00,WUHU216HW,2013-01-28 18:02:00,
2013-01-28 11:05:00,23.9,15.2,29.65,North,0,3.6,4.7,69,0.00,,,0.00,WUHU216HW,2013-01-28 18:05:00,
2013-01-28 11:06:00,23.8,14.7,29.65,NNW,338,2.9,4.7,68,0.00,,,0.00,WUHU216HW,2013-01-28 18:06:00,
2013-01-28 11:07:00,23.6,14.6,29.65,North,0,2.2,4.7,68,0.00,,,0.00,WUHU216HW,2013-01-28 18:07:00,
2013-01-28 11:10:00,23.6,14.9,29.65,North,0,2.7,4.0,69,0.00,,,0.00,WUHU216HW,2013-01-28 18:10:00,
2013-01-28 11:11:00,23.9,15.2,29.65,NNE,23,1.6,4.0,69,0.00,,,0.00,WUHU216HW,2013-01-28 18:11:00,
2013-01-28 11:12:00,23.9,15.2,29.65,NNE,23,2.5,4.0,69,0.00,,,0.00,WUHU216HW,2013-01-28 18:12:00,
2013-01-28 11:13:00,24.1,15.4,29.65,NNE,23,1.8,4.0,69,0.00,,,0.00,WUHU216HW,2013-01-28 18:13:00,
2013-01-28 11:15:00,24.5,15.4,29.65,North,0,1.1,3.6,68,0.00,,,0.00,WUHU216HW,2013-01-28 18:15:00,
2013-01-28 11:16:00,24.5,15.4,29.65,NNW,338,2.5,2.9,68,0.00,,,0.00,WUHU216HW,2013-01-28 18:16:00,
2013-01-28 11:17:00,24.3,15.2,29.65,NNW,338,2.2,2.7,68,0.00,,,0.00,WUHU216HW,2013-01-28 18:17:00,
2013-01-28 11:18:00,24.5,15.4,29.65,NW,315,1.8,2.7,68,0.00,,,0.00,WUHU216HW,2013-01-28 18:18:00,
2013-01-28 11:20:00,24.7,15.2,29.64,NNW,338,0.2,2.7,67,0.00,,,0.00,WUHU216HW,2013-01-28 18:20:00,
2013-01-28 11:21:00,24.8,15.4,29.64,NNW,338,0.4,2.7,67,0.00,,,0.00,WUHU216HW,2013-01-28 18:21:00,
2013-01-28 11:22:00,24.8,15.4,29.64,North,0,1.1,2.7,67,0.00,,,0.00,WUHU216HW,2013-01-28 18:22:00,
2013-01-28 11:23:00,24.8,15.0,29.64,North,0,0.2,2.7,66,0.00,,,0.00,WUHU216HW,2013-01-28 18:23:00,
2013-01-28 11:26:00,25.0,15.2,29.64,North,0,1.1,2.5,66,0.00,,,0.00,WUHU216HW,2013-01-28 18:26:00,
2013-01-28 11:27:00,25.0,15.2,29.64,North,0,2.2,2.5,66,0.00,,,0.00,WUHU216HW,2013-01-28 18:27:00,
2013-01-28 11:28:00,25.2,15.4,29.64,North,0,2.2,2.5,66,0.00,,,0.00,WUHU216HW,2013-01-28 18:28:00,
2013-01-28 11:31:00,25.6,15.7,29.64,NE,45,2.7,2.7,66,0.00,,,0.00,WUHU216HW,2013-01-28 18:31:00,
2013-01-28 11:32:00,25.6,15.7,29.64,NE,45,1.8,2.7,66,0.00,,,0.00,WUHU216HW,2013-01-28 18:32:00,
2013-01-28 11:33:00,25.7,15.8,29.64,ENE,68,2.9,2.9,66,0.00,,,0.00,WUHU216HW,2013-01-28 18:33:00,
2013-01-28 11:36:00,26.3,16.4,29.64,East,90,1.6,2.9,66,0.00,,,0.00,WUHU216HW,2013-01-28 18:36:00,
2013-01-28 11:37:00,26.5,16.6,29.64,East,90,2.0,2.9,66,0.00,,,0.00,WUHU216HW,2013-01-28 18:37:00,
2013-01-28 11:38:00,26.6,16.7,29.64,ENE,68,2.0,2.9,66,0.00,,,0.00,WUHU216HW,2013-01-28 18:38:00,
2013-01-28 11:41:00,27.0,16.7,29.64,ENE,68,2.2,2.9,65,0.00,,,0.00,WUHU216HW,2013-01-28 18:41:00,
2013-01-28 11:42:00,27.0,17.1,29.64,East,90,1.1,2.9,66,0.00,,,0.00,WUHU216HW,2013-01-28 18:42:00,
2013-01-28 11:44:00,27.2,16.9,29.64,NE,45,2.7,2.7,65,0.00,,,0.00,WUHU216HW,2013-01-28 18:44:00,
2013-01-28 11:46:00,27.5,16.9,29.64,NNE,23,2.5,2.7,64,0.00,,,0.00,WUHU216HW,2013-01-28 18:46:00,
2013-01-28 11:47:00,27.5,16.6,29.64,NNE,23,3.1,3.1,63,0.00,,,0.00,WUHU216HW,2013-01-28 18:47:00,
2013-01-28 11:48:00,27.7,16.7,29.64,NNE,23,3.1,3.1,63,0.00,,,0.00,WUHU216HW,2013-01-28 18:48:00,
2013-01-28 11:49:00,27.7,16.7,29.64,NE,45,4.5,4.7,63,0.00,,,0.00,WUHU216HW,2013-01-28 18:49:00,
2013-01-28 11:51:00,27.9,16.9,29.64,NE,45,3.4,4.7,63,0.00,,,0.00,WUHU216HW,2013-01-28 18:51:00,
2013-01-28 11:52:00,27.9,16.6,29.64,NNE,23,2.7,4.7,62,0.00,,,0.00,WUHU216HW,2013-01-28 18:52:00,
2013-01-28 11:53:00,27.9,16.6,29.64,NNE,23,1.8,4.7,62,0.00,,,0.00,WUHU216HW,2013-01-28 18:53:00,
2013-01-28 11:54:00,27.9,16.6,29.64,North,0,3.6,4.7,62,0.00,,,0.00,WUHU216HW,2013-01-28 18:54:00,
2013-01-28 11:56:00,27.7,16.4,29.64,NE,45,2.7,4.7,62,0.00,,,0.00,WUHU216HW,2013-01-28 18:56:00,
2013-01-28 11:58:00,27.7,16.7,29.64,ENE,68,2.5,4.7,63,0.00,,,0.00,WUHU216HW,2013-01-28 18:58:00,
2013-01-28 11:59:00,27.7,16.7,29.64,East,90,0.7,4.5,63,0.00,,,0.00,WUHU216HW,2013-01-28 18:59:00,
2013-01-28 12:01:00,27.7,17.1,29.64,East,90,2.5,3.6,64,0.00,,,0.00,WUHU216HW,2013-01-28 19:01:00,
2013-01-28 12:03:00,27.9,17.3,29.63,ESE,113,1.8,3.6,64,0.00,,,0.00,WUHU216HW,2013-01-28 19:03:00,
2013-01-28 12:04:00,27.9,17.3,29.64,ENE,68,2.7,3.6,64,0.00,,,0.00,WUHU216HW,2013-01-28 19:04:00,
2013-01-28 12:06:00,28.1,17.1,29.63,North,0,2.5,3.6,63,0.00,,,0.00,WUHU216HW,2013-01-28 19:06:00,
2013-01-28 12:08:00,27.9,17.3,29.63,NNW,338,1.8,4.7,64,0.00,,,0.00,WUHU216HW,2013-01-28 19:08:00,
2013-01-28 12:09:00,27.7,16.7,29.63,North,0,2.9,4.7,63,0.00,,,0.00,WUHU216HW,2013-01-28 19:09:00,
2013-01-28 12:11:00,27.0,16.4,29.63,North,0,0.7,4.7,64,0.00,,,0.00,WUHU216HW,2013-01-28 19:11:00,
2013-01-28 12:13:00,27.0,16.7,29.63,ENE,68,1.8,4.7,65,0.00,,,0.00,WUHU216HW,2013-01-28 19:13:00,
2013-01-28 12:14:00,27.0,16.7,29.63,ESE,113,0.4,4.7,65,0.00,,,0.00,WUHU216HW,2013-01-28 19:14:00,
2013-01-28 12:16:00,27.4,17.5,29.63,ENE,68,1.1,4.7,66,0.00,,,0.00,WUHU216HW,2013-01-28 19:16:00,
2013-01-28 12:18:00,27.7,17.8,29.63,ENE,68,1.1,2.9,66,0.00,,,0.00,WUHU216HW,2013-01-28 19:18:00,
2013-01-28 12:19:00,28.1,17.8,29.63,ENE,68,1.3,2.5,65,0.00,,,0.00,WUHU216HW,2013-01-28 19:19:00,
2013-01-28 12:22:00,28.6,18.4,29.62,ESE,113,1.1,2.5,65,0.00,,,0.00,WUHU216HW,2013-01-28 19:22:00,
2013-01-28 12:23:00,28.8,18.6,29.62,ENE,68,0.2,2.5,65,0.00,,,0.00,WUHU216HW,2013-01-28 19:23:00,
2013-01-28 12:24:00,29.2,18.8,29.62,ENE,68,1.1,2.0,65,0.00,,,0.00,WUHU216HW,2013-01-28 19:24:00,
2013-01-28 12:27:00,29.9,19.1,29.62,NE,45,1.8,2.0,64,0.00,,,0.00,WUHU216HW,2013-01-28 19:27:00,
2013-01-28 12:28:00,30.2,19.4,29.62,NNE,23,0.4,2.0,64,0.00,,,0.00,WUHU216HW,2013-01-28 19:28:00,
2013-01-28 12:29:00,30.4,19.3,29.62,NNW,338,1.1,2.0,63,0.00,,,0.00,WUHU216HW,2013-01-28 19:29:00,
2013-01-28 12:32:00,30.8,20.0,29.62,West,270,1.1,2.0,64,0.00,,,0.00,WUHU216HW,2013-01-28 19:32:00,
2013-01-28 12:34:00,31.3,19.4,29.62,NNE,23,1.6,2.0,61,0.00,,,0.00,WUHU216HW,2013-01-28 19:34:00,
2013-01-28 12:37:00,30.8,18.1,29.62,East,90,3.4,3.4,59,0.00,,,0.00,WUHU216HW,2013-01-28 19:37:00,
2013-01-28 12:39:00,30.8,18.5,29.62,East,90,2.5,3.4,60,0.00,,,0.00,WUHU216HW,2013-01-28 19:39:00,
2013-01-28 12:42:00,31.0,19.1,29.62,East,90,1.1,3.4,61,0.00,,,0.00,WUHU216HW,2013-01-28 19:42:00,
2013-01-28 12:44:00,31.3,19.1,29.62,NNE,23,1.3,3.4,60,0.00,,,0.00,WUHU216HW,2013-01-28 19:44:00,
2013-01-28 12:45:00,31.3,18.6,29.62,East,90,1.6,3.4,59,0.00,,,0.00,WUHU216HW,2013-01-28 19:45:00,
2013-01-28 12:47:00,31.0,18.7,29.62,East,90,2.5,2.9,60,0.00,,,0.00,WUHU216HW,2013-01-28 19:47:00,
2013-01-28 12:49:00,31.0,18.7,29.61,ENE,68,2.9,2.9,60,0.00,,,0.00,WUHU216HW,2013-01-28 19:49:00,
2013-01-28 12:50:00,31.0,18.3,29.61,ENE,68,2.5,2.9,59,0.00,,,0.00,WUHU216HW,2013-01-28 19:50:00,
2013-01-28 12:52:00,30.6,17.9,29.61,ENE,68,1.3,2.9,59,0.00,,,0.00,WUHU216HW,2013-01-28 19:52:00,
2013-01-28 12:54:00,30.4,18.2,29.61,ENE,68,1.8,2.9,60,0.00,,,0.00,WUHU216HW,2013-01-28 19:54:00,
2013-01-28 12:55:00,30.4,18.2,29.61,ENE,68,1.8,2.9,60,0.00,,,0.00,WUHU216HW,2013-01-28 19:55:00,
2013-01-28 12:58:00,30.2,18.0,29.61,NNE,23,1.1,2.9,60,0.00,,,0.00,WUHU216HW,2013-01-28 19:58:00,
2013-01-28 12:59:00,30.1,17.8,29.61,North,0,2.9,2.9,60,0.00,,,0.00,WUHU216HW,2013-01-28 19:59:00,
2013-01-28 13:00:00,30.1,17.5,29.61,NNE,23,2.7,3.6,59,0.00,,,0.00,WUHU216HW,2013-01-28 20:00:00,
2013-01-28 13:03:00,29.9,18.0,29.61,North,0,2.9,3.6,61,0.00,,,0.00,WUHU216HW,2013-01-28 20:03:00,
2013-01-28 13:04:00,29.7,17.9,29.61,North,0,2.2,3.6,61,0.00,,,0.00,WUHU216HW,2013-01-28 20:04:00,
2013-01-28 13:05:00,29.5,17.4,29.61,North,0,1.8,3.6,60,0.00,,,0.00,WUHU216HW,2013-01-28 20:05:00,
2013-01-28 13:08:00,29.0,17.6,29.61,North,0,1.8,3.6,62,0.00,,,0.00,WUHU216HW,2013-01-28 20:08:00,
2013-01-28 13:09:00,28.8,17.5,29.61,North,0,1.6,3.6,62,0.00,,,0.00,WUHU216HW,2013-01-28 20:09:00,
2013-01-28 13:10:00,28.8,17.1,29.61,NNE,23,1.8,3.6,61,0.00,,,0.00,WUHU216HW,2013-01-28 20:10:00,
2013-01-28 13:13:00,28.3,16.9,29.61,North,0,1.3,3.4,62,0.00,,,0.00,WUHU216HW,2013-01-28 20:13:00,
2013-01-28 13:14:00,28.3,16.9,29.61,North,0,1.1,3.4,62,0.00,,,0.00,WUHU216HW,2013-01-28 20:14:00,
2013-01-28 13:15:00,28.4,17.1,29.61,North,0,0.7,3.4,62,0.00,,,0.00,WUHU216HW,2013-01-28 20:15:00,
2013-01-28 13:18:00,28.8,17.5,29.61,NW,315,2.7,4.0,62,0.00,,,0.00,WUHU216HW,2013-01-28 20:18:00,
2013-01-28 13:19:00,29.2,17.7,29.61,NNW,338,2.9,4.7,62,0.00,,,0.00,WUHU216HW,2013-01-28 20:19:00,
2013-01-28 13:20:00,29.3,18.3,29.61,NNW,338,2.0,4.7,63,0.00,,,0.00,WUHU216HW,2013-01-28 20:20:00,
2013-01-28 13:23:00,29.5,17.4,29.60,North,0,2.0,5.6,60,0.00,,,0.00,WUHU216HW,2013-01-28 20:23:00,
2013-01-28 13:25:00,29.2,17.4,29.60,NNW,338,2.2,5.6,61,0.00,,,0.00,WUHU216HW,2013-01-28 20:25:00,
2013-01-28 13:26:00,28.8,17.5,29.60,NW,315,1.6,5.6,62,0.00,,,0.00,WUHU216HW,2013-01-28 20:26:00,
2013-01-28 13:28:00,28.6,17.3,29.60,WNW,293,2.5,5.6,62,0.00,,,0.00,WUHU216HW,2013-01-28 20:28:00,
2013-01-28 13:30:00,28.6,17.3,29.60,NW,315,2.9,5.6,62,0.00,,,0.00,WUHU216HW,2013-01-28 20:30:00,
2013-01-28 13:31:00,28.4,17.1,29.60,WNW,293,3.4,5.6,62,0.00,,,0.00,WUHU216HW,2013-01-28 20:31:00,
2013-01-28 13:33:00,28.1,17.1,29.60,NW,315,3.8,5.6,63,0.00,,,0.00,WUHU216HW,2013-01-28 20:33:00,
2013-01-28 13:35:00,28.1,17.1,29.60,NNW,338,1.6,5.6,63,0.00,,,0.00,WUHU216HW,2013-01-28 20:35:00,
2013-01-28 13:36:00,28.3,17.3,29.60,NW,315,2.7,5.6,63,0.00,,,0.00,WUHU216HW,2013-01-28 20:36:00,
2013-01-28 13:38:00,28.4,17.1,29.60,WNW,293,1.8,5.6,62,0.00,,,0.00,WUHU216HW,2013-01-28 20:38:00,
2013-01-28 13:40:00,28.3,17.3,29.60,WNW,293,3.4,4.7,63,0.00,,,0.00,WUHU216HW,2013-01-28 20:40:00,
2013-01-28 13:41:00,28.3,17.3,29.60,WNW,293,3.1,4.7,63,0.00,,,0.00,WUHU216HW,2013-01-28 20:41:00,
2013-01-28 13:44:00,28.4,17.5,29.60,NNW,338,3.4,3.4,63,0.00,,,0.00,WUHU216HW,2013-01-28 20:44:00,
2013-01-28 13:45:00,28.8,17.8,29.60,NNW,338,2.7,3.4,63,0.00,,,0.00,WUHU216HW,2013-01-28 20:45:00,
2013-01-28 13:46:00,28.8,17.8,29.60,NNW,338,2.7,3.4,63,0.00,,,0.00,WUHU216HW,2013-01-28 20:46:00,
2013-01-28 13:49:00,29.2,18.1,29.59,NNW,338,3.4,3.8,63,0.00,,,0.00,WUHU216HW,2013-01-28 20:49:00,
2013-01-28 13:50:00,29.5,18.5,29.59,NNW,338,3.4,3.8,63,0.00,,,0.00,WUHU216HW,2013-01-28 20:50:00,
2013-01-28 13:51:00,29.5,18.1,29.59,NNW,338,2.5,3.8,62,0.00,,,0.00,WUHU216HW,2013-01-28 20:51:00,
2013-01-28 13:54:00,29.7,18.3,29.59,NNW,338,3.6,3.8,62,0.00,,,0.00,WUHU216HW,2013-01-28 20:54:00,
2013-01-28 13:55:00,29.5,17.4,29.59,NNW,338,2.0,3.8,60,0.00,,,0.00,WUHU216HW,2013-01-28 20:55:00,
2013-01-28 13:56:00,29.5,17.4,29.59,NW,315,2.5,3.8,60,0.00,,,0.00,WUHU216HW,2013-01-28 20:56:00,
2013-01-28 13:59:00,29.2,17.4,29.59,NNW,338,0.4,3.8,61,0.00,,,0.00,WUHU216HW,2013-01-28 20:59:00,
2013-01-28 14:00:00,29.2,17.7,29.59,NW,315,1.1,3.8,62,0.00,,,0.00,WUHU216HW,2013-01-28 21:00:00,
2013-01-28 14:01:00,29.2,17.7,29.59,NW,315,1.8,3.8,62,0.00,,,0.00,WUHU216HW,2013-01-28 21:01:00,
2013-01-28 14:02:00,29.2,17.7,29.59,WNW,293,1.1,3.8,62,0.00,,,0.00,WUHU216HW,2013-01-28 21:02:00,
2013-01-28 14:04:00,29.2,17.7,29.59,WNW,293,4.0,4.0,62,0.00,,,0.00,WUHU216HW,2013-01-28 21:04:00,
2013-01-28 14:06:00,29.2,17.7,29.59,NW,315,4.0,4.3,62,0.00,,,0.00,WUHU216HW,2013-01-28 21:06:00,
2013-01-28 14:07:00,28.8,17.5,29.59,NW,315,3.1,4.5,62,0.00,,,0.00,WUHU216HW,2013-01-28 21:07:00,
2013-01-28 14:10:00,27.9,16.6,29.59,NW,315,4.0,4.5,62,0.00,,,0.00,WUHU216HW,2013-01-28 21:10:00,
2013-01-28 14:11:00,27.7,16.7,29.59,WNW,293,3.4,4.5,63,0.00,,,0.00,WUHU216HW,2013-01-28 21:11:00,
2013-01-28 14:12:00,27.5,16.6,29.59,WNW,293,3.4,4.5,63,0.00,,,0.00,WUHU216HW,2013-01-28 21:12:00,
2013-01-28 14:15:00,27.4,16.4,29.59,WNW,293,0.4,4.5,63,0.00,,,0.00,WUHU216HW,2013-01-28 21:15:00,
2013-01-28 14:16:00,27.4,16.7,29.59,WNW,293,0.0,4.3,64,0.00,,,0.00,WUHU216HW,2013-01-28 21:16:00,
2013-01-28 14:17:00,27.5,16.9,29.59,WNW,293,0.0,4.3,64,0.00,,,0.00,WUHU216HW,2013-01-28 21:17:00,
2013-01-28 14:20:00,28.1,17.5,29.59,WNW,293,0.0,4.0,64,0.00,,,0.00,WUHU216HW,2013-01-28 21:20:00,
2013-01-28 14:21:00,28.4,17.8,29.59,WNW,293,0.4,3.6,64,0.00,,,0.00,WUHU216HW,2013-01-28 21:21:00,
2013-01-28 14:22:00,28.4,17.8,29.59,WNW,293,0.4,3.4,64,0.00,,,0.00,WUHU216HW,2013-01-28 21:22:00,
2013-01-28 14:25:00,29.2,18.5,29.59,WNW,293,0.0,0.4,64,0.00,,,0.00,WUHU216HW,2013-01-28 21:25:00,
2013-01-28 14:26:00,29.3,18.6,29.59,WNW,293,0.4,0.4,64,0.00,,,0.00,WUHU216HW,2013-01-28 21:26:00,
2013-01-28 14:27:00,29.5,19.2,29.59,WSW,248,0.7,0.7,65,0.00,,,0.00,WUHU216HW,2013-01-28 21:27:00,
2013-01-28 14:30:00,29.9,19.4,29.59,SW,225,0.4,1.8,65,0.00,,,0.00,WUHU216HW,2013-01-28 21:30:00,
2013-01-28 14:31:00,30.2,19.8,29.59,SW,225,0.4,1.8,65,0.00,,,0.00,WUHU216HW,2013-01-28 21:31:00,
2013-01-28 14:32:00,30.2,19.8,29.59,SW,225,0.4,1.8,65,0.00,,,0.00,WUHU216HW,2013-01-28 21:32:00,
2013-01-28 14:35:00,31.0,20.2,29.59,SW,225,0.0,1.8,64,0.00,,,0.00,WUHU216HW,2013-01-28 21:35:00,
2013-01-28 14:37:00,31.1,20.3,29.59,West,270,1.1,1.8,64,0.00,,,0.00,WUHU216HW,2013-01-28 21:37:00,
2013-01-28 14:40:00,31.0,19.1,29.59,WSW,248,2.2,2.2,61,0.00,,,0.00,WUHU216HW,2013-01-28 21:40:00,
2013-01-28 14:42:00,30.6,18.7,29.59,WSW,248,1.6,2.2,61,0.00,,,0.00,WUHU216HW,2013-01-28 21:42:00,
2013-01-28 14:46:00,30.6,19.1,29.59,WSW,248,0.7,2.2,62,0.00,,,0.00,WUHU216HW,2013-01-28 21:46:00,
2013-01-28 14:47:00,31.0,19.4,29.59,WSW,248,0.7,2.2,62,0.00,,,0.00,WUHU216HW,2013-01-28 21:47:00,
2013-01-28 14:51:00,31.3,19.8,29.58,WSW,248,2.5,2.5,62,0.00,,,0.00,WUHU216HW,2013-01-28 21:51:00,
2013-01-28 14:52:00,31.3,19.4,29.58,West,270,3.4,3.4,61,0.00,,,0.00,WUHU216HW,2013-01-28 21:52:00,
2013-01-28 14:53:00,31.5,19.6,29.58,West,270,3.4,3.4,61,0.00,,,0.00,WUHU216HW,2013-01-28 21:53:00,
2013-01-28 14:56:00,30.8,18.1,29.58,West,270,2.2,3.8,59,0.00,,,0.00,WUHU216HW,2013-01-28 21:56:00,
2013-01-28 14:57:00,30.6,18.4,29.58,West,270,1.3,3.8,60,0.00,,,0.00,WUHU216HW,2013-01-28 21:57:00,
2013-01-28 14:58:00,30.4,18.2,29.58,West,270,1.1,3.8,60,0.00,,,0.00,WUHU216HW,2013-01-28 21:58:00,
2013-01-28 15:01:00,30.1,18.2,29.59,WSW,248,2.5,3.8,61,0.00,,,0.00,WUHU216HW,2013-01-28 22:01:00,
2013-01-28 15:02:00,30.1,18.2,29.58,WSW,248,2.5,3.8,61,0.00,,,0.00,WUHU216HW,2013-01-28 22:02:00,
2013-01-28 15:03:00,29.9,18.0,29.59,West,270,2.0,3.4,61,0.00,,,0.00,WUHU216HW,2013-01-28 22:03:00,
2013-01-28 15:06:00,29.9,18.4,29.58,West,270,2.2,2.9,62,0.00,,,0.00,WUHU216HW,2013-01-28 22:06:00,
2013-01-28 15:07:00,30.1,18.5,29.58,WSW,248,1.6,2.9,62,0.00,,,0.00,WUHU216HW,2013-01-28 22:07:00,
2013-01-28 15:08:00,30.1,18.2,29.58,WSW,248,1.6,2.9,61,0.00,,,0.00,WUHU216HW,2013-01-28 22:08:00,
2013-01-28 15:11:00,30.6,19.1,29.58,WSW,248,2.0,2.9,62,0.00,,,0.00,WUHU216HW,2013-01-28 22:11:00,
2013-01-28 15:12:00,30.6,18.7,29.58,WSW,248,1.6,2.7,61,0.00,,,0.00,WUHU216HW,2013-01-28 22:12:00,
2013-01-28 15:13:00,30.6,18.7,29.58,WSW,248,1.1,2.7,61,0.00,,,0.00,WUHU216HW,2013-01-28 22:13:00,
2013-01-28 15:16:00,31.0,19.1,29.59,WSW,248,2.0,3.6,61,0.00,,,0.00,WUHU216HW,2013-01-28 22:16:00,
2013-01-28 15:17:00,31.0,19.1,29.58,WSW,248,1.8,3.6,61,0.00,,,0.00,WUHU216HW,2013-01-28 22:17:00,
2013-01-28 15:18:00,31.1,19.3,29.58,WSW,248,1.8,3.6,61,0.00,,,0.00,WUHU216HW,2013-01-28 22:18:00,
2013-01-28 15:22:00,30.8,18.5,29.58,West,270,1.8,3.6,60,0.00,,,0.00,WUHU216HW,2013-01-28 22:22:00,
2013-01-28 15:23:00,30.6,18.4,29.58,West,270,2.2,3.6,60,0.00,,,0.00,WUHU216HW,2013-01-28 22:23:00,
2013-01-28 15:27:00,29.5,16.9,29.59,WNW,293,2.5,2.7,59,0.00,,,0.00,WUHU216HW,2013-01-28 22:27:00,
2013-01-28 15:28:00,29.3,16.7,29.59,NW,315,2.2,2.7,59,0.00,,,0.00,WUHU216HW,2013-01-28 22:28:00,
2013-01-28 15:29:00,29.0,16.8,29.59,NW,315,1.8,2.7,60,0.00,,,0.00,WUHU216HW,2013-01-28 22:29:00,
2013-01-28 15:32:00,28.8,17.1,29.59,NNW,338,2.7,2.7,61,0.00,,,0.00,WUHU216HW,2013-01-28 22:32:00,
2013-01-28 15:33:00,29.0,17.2,29.59,NNW,338,2.5,2.7,61,0.00,,,0.00,WUHU216HW,2013-01-28 22:33:00,
2013-01-28 15:34:00,29.0,17.2,29.59,NNW,338,2.7,2.9,61,0.00,,,0.00,WUHU216HW,2013-01-28 22:34:00,
2013-01-28 15:37:00,28.8,17.1,29.59,NNW,338,1.8,2.9,61,0.00,,,0.00,WUHU216HW,2013-01-28 22:37:00,
2013-01-28 15:38:00,28.8,17.1,29.59,NNW,338,2.0,2.9,61,0.00,,,0.00,WUHU216HW,2013-01-28 22:38:00,
2013-01-28 15:39:00,28.8,17.1,29.59,NNW,338,2.5,2.9,61,0.00,,,0.00,WUHU216HW,2013-01-28 22:39:00,
2013-01-28 15:40:00,28.8,17.1,29.59,NNW,338,2.5,2.9,61,0.00,,,0.00,WUHU216HW,2013-01-28 22:40:00,
2013-01-28 15:42:00,29.0,17.6,29.59,NW,315,3.4,3.6,62,0.00,,,0.00,WUHU216HW,2013-01-28 22:42:00,
2013-01-28 15:43:00,29.0,17.6,29.59,NW,315,2.7,3.6,62,0.00,,,0.00,WUHU216HW,2013-01-28 22:43:00,
2013-01-28 15:44:00,29.0,17.6,29.59,NW,315,2.5,3.6,62,0.00,,,0.00,WUHU216HW,2013-01-28 22:44:00,
2013-01-28 15:45:00,29.0,17.6,29.59,NW,315,2.5,3.6,62,0.00,,,0.00,WUHU216HW,2013-01-28 22:45:00,
2013-01-28 15:47:00,29.2,17.7,29.59,NNW,338,2.5,3.6,62,0.00,,,0.00,WUHU216HW,2013-01-28 22:47:00,
2013-01-28 15:48:00,29.2,17.4,29.59,NNW,338,2.0,3.6,61,0.00,,,0.00,WUHU216HW,2013-01-28 22:48:00,
2013-01-28 15:49:00,29.0,17.2,29.59,NNW,338,1.6,3.6,61,0.00,,,0.00,WUHU216HW,2013-01-28 22:49:00,
2013-01-28 15:50:00,29.0,16.8,29.59,NNW,338,1.3,3.6,60,0.00,,,0.00,WUHU216HW,2013-01-28 22:50:00,
2013-01-28 15:52:00,28.4,16.7,29.59,NNW,338,1.8,3.4,61,0.00,,,0.00,WUHU216HW,2013-01-28 22:52:00,
2013-01-28 15:53:00,28.3,16.6,29.59,NNW,338,1.1,3.4,61,0.00,,,0.00,WUHU216HW,2013-01-28 22:53:00,
2013-01-28 15:54:00,28.1,16.7,29.59,NNW,338,1.1,3.4,62,0.00,,,0.00,WUHU216HW,2013-01-28 22:54:00,
2013-01-28 15:55:00,28.1,16.7,29.59,North,0,1.1,3.4,62,0.00,,,0.00,WUHU216HW,2013-01-28 22:55:00,
2013-01-28 15:58:00,27.7,16.7,29.59,North,0,2.0,2.7,63,0.00,,,0.00,WUHU216HW,2013-01-28 22:58:00,
2013-01-28 15:59:00,27.7,16.7,29.59,NNE,23,2.9,2.9,63,0.00,,,0.00,WUHU216HW,2013-01-28 22:59:00,
2013-01-28 16:00:00,27.7,17.5,29.59,North,0,2.9,3.4,65,0.00,,,0.00,WUHU216HW,2013-01-28 23:00:00,
2013-01-28 16:03:00,27.7,16.7,29.59,NNE,23,0.9,3.4,63,0.00,,,0.00,WUHU216HW,2013-01-28 23:03:00,
2013-01-28 16:04:00,27.9,16.9,29.59,NE,45,3.6,3.6,63,0.00,,,0.00,WUHU216HW,2013-01-28 23:04:00,
2013-01-28 16:05:00,28.3,17.6,29.59,ENE,68,2.7,3.6,64,0.00,,,0.00,WUHU216HW,2013-01-28 23:05:00,
2013-01-28 16:08:00,28.3,17.6,29.58,East,90,2.9,3.6,64,0.00,,,0.00,WUHU216HW,2013-01-28 23:08:00,
2013-01-28 16:09:00,28.4,17.8,29.58,ENE,68,3.6,3.6,64,0.00,,,0.00,WUHU216HW,2013-01-28 23:09:00,
2013-01-28 16:10:00,28.4,17.8,29.59,ENE,68,4.7,4.9,64,0.00,,,0.00,WUHU216HW,2013-01-28 23:10:00,
2013-01-28 16:13:00,28.4,17.8,29.58,East,90,3.6,5.4,64,0.00,,,0.00,WUHU216HW,2013-01-28 23:13:00,
2013-01-28 16:14:00,28.4,17.5,29.58,ENE,68,3.6,5.4,63,0.00,,,0.00,WUHU216HW,2013-01-28 23:14:00,
2013-01-28 16:15:00,28.4,17.5,29.58,ENE,68,2.2,5.4,63,0.00,,,0.00,WUHU216HW,2013-01-28 23:15:00,
2013-01-28 16:18:00,28.3,17.3,29.58,NNE,23,3.4,5.4,63,0.00,,,0.00,WUHU216HW,2013-01-28 23:18:00,
2013-01-28 16:19:00,28.1,17.1,29.58,NE,45,1.8,5.4,63,0.00,,,0.00,WUHU216HW,2013-01-28 23:19:00,
2013-01-28 16:21:00,28.1,17.1,29.58,NNE,23,0.7,5.4,63,0.00,,,0.00,WUHU216HW,2013-01-28 23:21:00,
2013-01-28 16:23:00,27.9,16.9,29.58,NNE,23,1.1,4.0,63,0.00,,,0.00,WUHU216HW,2013-01-28 23:23:00,
2013-01-28 16:24:00,27.9,16.9,29.59,NNE,23,1.1,3.8,63,0.00,,,0.00,WUHU216HW,2013-01-28 23:24:00,
2013-01-28 16:25:00,27.9,16.9,29.59,NNE,23,1.1,3.8,63,0.00,,,0.00,WUHU216HW,2013-01-28 23:25:00,
2013-01-28 16:26:00,27.9,16.9,29.59,North,0,1.1,3.8,63,0.00,,,0.00,WUHU216HW,2013-01-28 23:26:00,
2013-01-28 16:28:00,27.9,17.3,29.58,North,0,0.0,3.6,64,0.00,,,0.00,WUHU216HW,2013-01-28 23:28:00,
2013-01-28 16:30:00,27.9,17.3,29.58,North,0,0.0,2.0,64,0.00,,,0.00,WUHU216HW,2013-01-28 23:30:00,
2013-01-28 16:31:00,27.9,17.3,29.58,North,0,0.0,2.0,64,0.00,,,0.00,WUHU216HW,2013-01-28 23:31:00,
2013-01-28 16:33:00,28.1,17.5,29.58,North,0,0.0,1.3,64,0.00,,,0.00,WUHU216HW,2013-01-28 23:33:00,
2013-01-28 16:35:00,28.3,17.6,29.58,North,0,0.0,1.1,64,0.00,,,0.00,WUHU216HW,2013-01-28 23:35:00,
2013-01-28 16:36:00,28.4,17.8,29.58,WSW,248,1.3,1.6,64,0.00,,,0.00,WUHU216HW,2013-01-28 23:36:00,
2013-01-28 16:39:00,28.8,18.2,29.58,WSW,248,4.5,4.5,64,0.00,,,0.00,WUHU216HW,2013-01-28 23:39:00,
2013-01-28 16:40:00,29.2,18.8,29.58,SW,225,6.3,6.3,65,0.00,,,0.00,WUHU216HW,2013-01-28 23:40:00,
2013-01-28 16:41:00,29.2,18.8,29.58,SSW,203,4.0,6.3,65,0.00,,,0.00,WUHU216HW,2013-01-28 23:41:00,
2013-01-28 16:44:00,29.5,19.5,29.58,SW,225,2.5,6.3,66,0.00,,,0.00,WUHU216HW,2013-01-28 23:44:00,
2013-01-28 16:45:00,29.7,19.7,29.58,SSW,203,4.3,6.3,66,0.00,,,0.00,WUHU216HW,2013-01-28 23:45:00,
2013-01-28 16:46:00,29.7,19.7,29.58,SSW,203,3.8,6.3,66,0.00,,,0.00,WUHU216HW,2013-01-28 23:46:00,
2013-01-28 16:49:00,29.9,19.4,29.58,SSW,203,2.9,6.3,65,0.00,,,0.00,WUHU216HW,2013-01-28 23:49:00,
2013-01-28 16:50:00,29.9,19.8,29.57,SSW,203,3.4,6.3,66,0.00,,,0.00,WUHU216HW,2013-01-28 23:50:00,
2013-01-28 16:51:00,29.9,19.8,29.57,SSW,203,3.4,4.7,66,0.00,,,0.00,WUHU216HW,2013-01-28 23:51:00,
2013-01-28 16:54:00,29.9,19.8,29.58,South,180,4.5,5.4,66,0.00,,,0.00,WUHU216HW,2013-01-28 23:54:00,
2013-01-28 16:55:00,29.9,19.4,29.57,SE,135,4.7,5.4,65,0.00,,,0.00,WUHU216HW,2013-01-28 23:55:00,
2013-01-28 16:56:00,29.9,19.4,29.57,SSE,158,5.8,5.8,65,0.00,,,0.00,WUHU216HW,2013-01-28 23:56:00,
2013-01-28 16:59:00,29.5,19.2,29.58,SE,135,4.7,6.3,65,0.00,,,0.00,WUHU216HW,2013-01-28 23:59:00,
2013-01-28 17:00:00,29.5,19.2,29.57,SSE,158,3.4,6.3,65,0.00,,,0.00,WUHU216HW,2013-01-29 00:00:00,
2013-01-28 17:01:00,29.5,19.2,29.57,SE,135,4.0,6.3,65,0.00,,,0.00,WUHU216HW,2013-01-29 00:01:00,
2013-01-28 17:02:00,29.3,19.0,29.58,SSE,158,4.7,6.3,65,0.00,,,0.00,WUHU216HW,2013-01-29 00:02:00,
2013-01-28 17:04:00,29.2,18.5,29.57,SSE,158,4.0,6.3,64,0.00,,,0.00,WUHU216HW,2013-01-29 00:04:00,
2013-01-28 17:05:00,29.0,18.3,29.57,South,180,4.0,6.3,64,0.00,,,0.00,WUHU216HW,2013-01-29 00:05:00,
2013-01-28 17:06:00,29.0,18.3,29.57,SSE,158,4.5,5.8,64,0.00,,,0.00,WUHU216HW,2013-01-29 00:06:00,
2013-01-28 17:07:00,29.0,18.3,29.58,South,180,3.4,5.6,64,0.00,,,0.00,WUHU216HW,2013-01-29 00:07:00,
2013-01-28 17:09:00,28.6,18.0,29.57,SSW,203,3.1,5.1,64,0.00,,,0.00,WUHU216HW,2013-01-29 00:09:00,
2013-01-28 17:11:00,28.6,18.0,29.57,South,180,1.8,5.1,64,0.00,,,0.00,WUHU216HW,2013-01-29 00:11:00,
2013-01-28 17:12:00,28.4,18.2,29.57,SSW,203,1.1,4.5,65,0.00,,,0.00,WUHU216HW,2013-01-29 00:12:00,
2013-01-28 17:14:00,28.4,18.2,29.57,SSW,203,1.8,4.5,65,0.00,,,0.00,WUHU216HW,2013-01-29 00:14:00,
2013-01-28 17:16:00,28.3,18.0,29.57,SSE,158,3.6,4.5,65,0.00,,,0.00,WUHU216HW,2013-01-29 00:16:00,
2013-01-28 17:17:00,28.3,18.0,29.57,SSE,158,3.4,4.0,65,0.00,,,0.00,WUHU216HW,2013-01-29 00:17:00,
2013-01-28 17:19:00,27.9,17.6,29.57,SSE,158,2.5,3.8,65,0.00,,,0.00,WUHU216HW,2013-01-29 00:19:00,
2013-01-28 17:21:00,27.9,17.6,29.57,South,180,3.6,4.0,65,0.00,,,0.00,WUHU216HW,2013-01-29 00:21:00,
2013-01-28 17:22:00,27.7,17.5,29.57,SSE,158,2.7,4.0,65,0.00,,,0.00,WUHU216HW,2013-01-29 00:22:00,
2013-01-28 17:24:00,27.5,17.6,29.57,SE,135,5.6,5.6,66,0.00,,,0.00,WUHU216HW,2013-01-29 00:24:00,
2013-01-28 17:26:00,27.2,17.3,29.57,SE,135,5.4,6.3,66,0.00,,,0.00,WUHU216HW,2013-01-29 00:26:00,
2013-01-28 17:27:00,27.2,17.3,29.57,SE,135,4.7,6.3,66,0.00,,,0.00,WUHU216HW,2013-01-29 00:27:00,
2013-01-28 17:29:00,26.8,16.9,29.57,SSE,158,5.4,6.3,66,0.00,,,0.00,WUHU216HW,2013-01-29 00:29:00,
2013-01-28 17:31:00,26.6,17.1,29.57,SE,135,5.1,6.3,67,0.00,,,0.00,WUHU216HW,2013-01-29 00:31:00,
2013-01-28 17:32:00,26.5,16.9,29.57,SE,135,5.4,6.3,67,0.00,,,0.00,WUHU216HW,2013-01-29 00:32:00,
2013-01-28 17:34:00,26.3,16.7,29.57,SSE,158,4.9,6.3,67,0.00,,,0.00,WUHU216HW,2013-01-29 00:34:00,
2013-01-28 17:36:00,26.1,16.9,29.57,South,180,2.5,5.4,68,0.00,,,0.00,WUHU216HW,2013-01-29 00:36:00,
2013-01-28 17:37:00,25.9,16.4,29.57,South,180,2.0,5.4,67,0.00,,,0.00,WUHU216HW,2013-01-29 00:37:00,
2013-01-28 17:39:00,25.7,16.6,29.57,SSE,158,1.8,5.4,68,0.00,,,0.00,WUHU216HW,2013-01-29 00:39:00,
2013-01-28 17:41:00,25.6,16.4,29.57,SE,135,2.5,5.4,68,0.00,,,0.00,WUHU216HW,2013-01-29 00:41:00,
2013-01-28 17:42:00,25.6,16.4,29.57,SE,135,4.7,4.9,68,0.00,,,0.00,WUHU216HW,2013-01-29 00:42:00,
2013-01-28 17:43:00,25.6,16.4,29.57,SE,135,6.3,6.3,68,0.00,,,0.00,WUHU216HW,2013-01-29 00:43:00,
2013-01-28 17:44:00,25.6,16.7,29.57,SE,135,6.5,6.9,69,0.00,,,0.00,WUHU216HW,2013-01-29 00:44:00,
2013-01-28 17:46:00,25.2,16.7,29.57,SE,135,6.3,6.9,70,0.00,,,0.00,WUHU216HW,2013-01-29 00:46:00,
2013-01-28 17:47:00,25.2,16.7,29.57,SE,135,6.3,6.9,70,0.00,,,0.00,WUHU216HW,2013-01-29 00:47:00,
2013-01-28 17:48:00,25.0,16.6,29.57,SE,135,5.8,6.9,70,0.00,,,0.00,WUHU216HW,2013-01-29 00:48:00,
2013-01-28 17:49:00,24.8,16.4,29.57,SE,135,4.9,6.9,70,0.00,,,0.00,WUHU216HW,2013-01-29 00:49:00,
2013-01-28 17:51:00,24.8,16.4,29.57,SE,135,7.2,7.2,70,0.00,,,0.00,WUHU216HW,2013-01-29 00:51:00,
2013-01-28 17:52:00,24.8,17.0,29.57,SE,135,6.7,7.2,72,0.00,,,0.00,WUHU216HW,2013-01-29 00:52:00,
2013-01-28 17:53:00,24.7,16.6,29.57,SE,135,6.5,7.2,71,0.00,,,0.00,WUHU216HW,2013-01-29 00:53:00,
2013-01-28 17:54:00,24.5,16.4,29.57,SSE,158,5.6,7.2,71,0.00,,,0.00,WUHU216HW,2013-01-29 00:54:00,
2013-01-28 17:56:00,24.5,16.4,29.57,SE,135,4.9,7.2,71,0.00,,,0.00,WUHU216HW,2013-01-29 00:56:00,
2013-01-28 17:57:00,24.3,16.2,29.57,SE,135,4.0,7.2,71,0.00,,,0.00,WUHU216HW,2013-01-29 00:57:00,
2013-01-28 17:58:00,24.5,16.4,29.57,SSE,158,4.3,7.2,71,0.00,,,0.00,WUHU216HW,2013-01-29 00:58:00,
2013-01-28 18:00:00,24.3,16.2,29.57,South,180,2.9,7.2,71,0.00,,,0.00,WUHU216HW,2013-01-29 01:00:00,
2013-01-28 18:02:00,24.3,16.6,29.57,SSE,158,4.9,6.9,72,0.00,,,0.00,WUHU216HW,2013-01-29 01:02:00,
2013-01-28 18:03:00,24.3,16.6,29.56,SE,135,5.6,6.5,72,0.00,,,0.00,WUHU216HW,2013-01-29 01:03:00,
2013-01-28 18:05:00,24.3,16.6,29.56,SSE,158,4.7,6.3,72,0.00,,,0.00,WUHU216HW,2013-01-29 01:05:00,
2013-01-28 18:07:00,24.3,16.6,29.56,SSE,158,4.7,6.3,72,0.00,,,0.00,WUHU216HW,2013-01-29 01:07:00,
2013-01-28 18:08:00,24.3,16.6,29.56,SSE,158,3.4,6.3,72,0.00,,,0.00,WUHU216HW,2013-01-29 01:08:00,
2013-01-28 18:10:00,24.5,16.8,29.56,South,180,4.5,6.3,72,0.00,,,0.00,WUHU216HW,2013-01-29 01:10:00,
2013-01-28 18:12:00,24.5,17.0,29.56,South,180,5.6,6.3,73,0.00,,,0.00,WUHU216HW,2013-01-29 01:12:00,
2013-01-28 18:13:00,24.5,17.0,29.56,South,180,6.3,6.3,73,0.00,,,0.00,WUHU216HW,2013-01-29 01:13:00,
2013-01-28 18:14:00,24.3,16.8,29.56,South,180,6.0,6.5,73,0.00,,,0.00,WUHU216HW,2013-01-29 01:14:00,
2013-01-28 18:16:00,24.3,16.8,29.56,SSE,158,6.0,6.5,73,0.00,,,0.00,WUHU216HW,2013-01-29 01:16:00,
2013-01-28 18:17:00,24.3,16.8,29.56,SSE,158,3.1,6.5,73,0.00,,,0.00,WUHU216HW,2013-01-29 01:17:00,
2013-01-28 18:19:00,24.3,16.8,29.56,SSE,158,3.4,6.5,73,0.00,,,0.00,WUHU216HW,2013-01-29 01:19:00,
2013-01-28 18:20:00,24.3,16.8,29.56,SSE,158,0.7,6.5,73,0.00,,,0.00,WUHU216HW,2013-01-29 01:20:00,
2013-01-28 18:21:00,24.3,16.6,29.56,South,180,0.4,6.5,72,0.00,,,0.00,WUHU216HW,2013-01-29 01:21:00,
2013-01-28 18:22:00,24.3,16.6,29.56,SW,225,1.1,6.5,72,0.00,,,0.00,WUHU216HW,2013-01-29 01:22:00,
2013-01-28 18:24:00,24.5,16.8,29.56,WSW,248,1.6,6.3,72,0.00,,,0.00,WUHU216HW,2013-01-29 01:24:00,
2013-01-28 18:25:00,24.5,16.8,29.56,WSW,248,2.0,6.0,72,0.00,,,0.00,WUHU216HW,2013-01-29 01:25:00,
2013-01-28 18:26:00,24.5,16.8,29.56,WSW,248,2.0,6.0,72,0.00,,,0.00,WUHU216HW,2013-01-29 01:26:00,
2013-01-28 18:27:00,24.3,16.6,29.56,WSW,248,4.0,4.0,72,0.00,,,0.00,WUHU216HW,2013-01-29 01:27:00,
2013-01-28 18:29:00,24.3,16.8,29.56,WSW,248,3.4,4.0,73,0.00,,,0.00,WUHU216HW,2013-01-29 01:29:00,
2013-01-28 18:30:00,24.3,16.6,29.56,WSW,248,4.3,4.3,72,0.00,,,0.00,WUHU216HW,2013-01-29 01:30:00,
2013-01-28 18:31:00,24.3,16.8,29.56,WSW,248,3.1,4.3,73,0.00,,,0.00,WUHU216HW,2013-01-29 01:31:00,
2013-01-28 18:32:00,24.3,16.8,29.56,NNW,338,0.7,4.3,73,0.00,,,0.00,WUHU216HW,2013-01-29 01:32:00,
2013-01-28 18:34:00,24.5,16.8,29.56,SW,225,1.8,4.3,72,0.00,,,0.00,WUHU216HW,2013-01-29 01:34:00,
2013-01-28 18:35:00,24.7,16.8,29.56,SW,225,0.9,4.3,72,0.00,,,0.00,WUHU216HW,2013-01-29 01:35:00,
2013-01-28 18:36:00,24.7,16.8,29.56,South,180,0.4,4.3,72,0.00,,,0.00,WUHU216HW,2013-01-29 01:36:00,
2013-01-28 18:38:00,24.8,17.0,29.56,SSE,158,0.9,4.3,72,0.00,,,0.00,WUHU216HW,2013-01-29 01:38:00,
2013-01-28 18:39:00,24.8,17.0,29.56,South,180,1.3,4.3,72,0.00,,,0.00,WUHU216HW,2013-01-29 01:39:00,
2013-01-28 18:40:00,24.8,17.0,29.56,SSE,158,0.9,3.6,72,0.00,,,0.00,WUHU216HW,2013-01-29 01:40:00,
2013-01-28 18:41:00,24.8,17.0,29.56,SSE,158,0.7,3.6,72,0.00,,,0.00,WUHU216HW,2013-01-29 01:41:00,
2013-01-28 18:43:00,24.8,17.0,29.56,SSE,158,0.4,3.6,72,0.00,,,0.00,WUHU216HW,2013-01-29 01:43:00,
2013-01-28 18:44:00,24.8,17.0,29.56,SSE,158,1.8,1.8,72,0.00,,,0.00,WUHU216HW,2013-01-29 01:44:00,
2013-01-28 18:45:00,24.8,17.0,29.56,SE,135,0.4,1.8,72,0.00,,,0.00,WUHU216HW,2013-01-29 01:45:00,
2013-01-28 18:46:00,24.8,17.0,29.56,SE,135,0.2,1.8,72,0.00,,,0.00,WUHU216HW,2013-01-29 01:46:00,
2013-01-28 18:48:00,24.8,17.0,29.56,SE,135,1.1,1.8,72,0.00,,,0.00,WUHU216HW,2013-01-29 01:48:00,
2013-01-28 18:49:00,24.8,17.0,29.56,SSE,158,2.0,2.0,72,0.00,,,0.00,WUHU216HW,2013-01-29 01:49:00,
2013-01-28 18:51:00,24.8,17.0,29.55,SE,135,2.2,2.5,72,0.00,,,0.00,WUHU216HW,2013-01-29 01:51:00,
2013-01-28 18:53:00,24.8,17.0,29.56,SE,135,1.1,2.5,72,0.00,,,0.00,WUHU216HW,2013-01-29 01:53:00,
2013-01-28 18:54:00,24.8,17.0,29.55,ESE,113,1.6,2.5,72,0.00,,,0.00,WUHU216HW,2013-01-29 01:54:00,
2013-01-28 18:56:00,24.8,17.0,29.55,East,90,0.9,2.5,72,0.00,,,0.00,WUHU216HW,2013-01-29 01:56:00,
2013-01-28 18:58:00,24.8,16.8,29.55,ESE,113,0.4,2.5,71,0.00,,,0.00,WUHU216HW,2013-01-29 01:58:00,
2013-01-28 19:00:00,24.8,16.8,29.55,SE,135,0.9,2.5,71,0.00,,,0.00,WUHU216HW,2013-01-29 02:00:00,
2013-01-28 19:01:00,24.8,16.8,29.55,SSE,158,1.8,2.2,71,0.00,,,0.00,WUHU216HW,2013-01-29 02:01:00,
2013-01-28 19:02:00,24.8,16.8,29.55,SSE,158,2.5,2.5,71,0.00,,,0.00,WUHU216HW,2013-01-29 02:02:00,
2013-01-28 19:03:00,24.7,16.6,29.55,SE,135,4.3,4.3,71,0.00,,,0.00,WUHU216HW,2013-01-29 02:03:00,
2013-01-28 19:05:00,24.8,16.8,29.56,SSE,158,4.5,4.9,71,0.00,,,0.00,WUHU216HW,2013-01-29 02:05:00,
2013-01-28 19:06:00,24.8,16.8,29.55,SE,135,4.0,4.9,71,0.00,,,0.00,WUHU216HW,2013-01-29 02:06:00,
2013-01-28 19:07:00,24.8,16.8,29.55,SSE,158,2.0,4.9,71,0.00,,,0.00,WUHU216HW,2013-01-29 02:07:00,
2013-01-28 19:08:00,24.8,16.8,29.55,SSE,158,1.1,4.9,71,0.00,,,0.00,WUHU216HW,2013-01-29 02:08:00,
2013-01-28 19:10:00,24.8,16.8,29.55,South,180,2.9,4.9,71,0.00,,,0.00,WUHU216HW,2013-01-29 02:10:00,
2013-01-28 19:11:00,24.8,16.8,29.55,SSE,158,2.5,4.9,71,0.00,,,0.00,WUHU216HW,2013-01-29 02:11:00,
2013-01-28 19:12:00,24.8,16.8,29.55,SSE,158,2.5,4.9,71,0.00,,,0.00,WUHU216HW,2013-01-29 02:12:00,
2013-01-28 19:13:00,24.8,17.0,29.55,SE,135,3.4,4.9,72,0.00,,,0.00,WUHU216HW,2013-01-29 02:13:00,
2013-01-28 19:15:00,24.8,17.0,29.55,SSE,158,4.0,5.1,72,0.00,,,0.00,WUHU216HW,2013-01-29 02:15:00,
2013-01-28 19:16:00,24.8,17.0,29.55,SE,135,4.9,5.1,72,0.00,,,0.00,WUHU216HW,2013-01-29 02:16:00,
2013-01-28 19:17:00,24.8,17.0,29.55,SE,135,6.0,6.3,72,0.00,,,0.00,WUHU216HW,2013-01-29 02:17:00,
2013-01-28 19:18:00,24.8,17.0,29.55,SE,135,5.8,6.3,72,0.00,,,0.00,WUHU216HW,2013-01-29 02:18:00,
2013-01-28 19:21:00,24.7,16.8,29.55,SE,135,2.5,6.3,72,0.00,,,0.00,WUHU216HW,2013-01-29 02:21:00,
2013-01-28 19:22:00,24.8,17.0,29.55,SE,135,3.4,6.3,72,0.00,,,0.00,WUHU216HW,2013-01-29 02:22:00,
2013-01-28 19:23:00,24.7,16.8,29.55,ESE,113,3.6,6.3,72,0.00,,,0.00,WUHU216HW,2013-01-29 02:23:00,
2013-01-28 19:26:00,24.7,16.8,29.55,SE,135,3.6,6.3,72,0.00,,,0.00,WUHU216HW,2013-01-29 02:26:00,
2013-01-28 19:27:00,24.7,16.8,29.55,SE,135,2.5,6.3,72,0.00,,,0.00,WUHU216HW,2013-01-29 02:27:00,
2013-01-28 19:29:00,24.7,17.6,29.55,North,0,2.9,4.7,74,0.00,,,0.00,WUHU216HW,2013-01-29 02:29:00,
2013-01-28 19:31:00,24.3,17.2,29.55,NNW,338,1.8,4.3,74,0.00,,,0.00,WUHU216HW,2013-01-29 02:31:00,
2013-01-28 19:32:00,24.1,17.0,29.55,NNW,338,1.8,4.3,74,0.00,,,0.00,WUHU216HW,2013-01-29 02:32:00,
2013-01-28 19:33:00,24.1,16.7,29.55,NNE,23,2.7,4.3,73,0.00,,,0.00,WUHU216HW,2013-01-29 02:33:00,
2013-01-28 19:34:00,24.1,17.3,29.55,NE,45,3.1,4.3,75,0.00,,,0.00,WUHU216HW,2013-01-29 02:34:00,
2013-01-28 19:36:00,24.1,17.3,29.55,NNE,23,1.8,4.3,75,0.00,,,0.00,WUHU216HW,2013-01-29 02:36:00,
2013-01-28 19:37:00,24.1,17.3,29.55,ENE,68,3.4,4.3,75,0.00,,,0.00,WUHU216HW,2013-01-29 02:37:00,
2013-01-28 19:38:00,24.1,17.3,29.55,NE,45,2.2,4.3,75,0.00,,,0.00,WUHU216HW,2013-01-29 02:38:00,
2013-01-28 19:39:00,24.1,17.3,29.55,NNE,23,0.4,4.3,75,0.00,,,0.00,WUHU216HW,2013-01-29 02:39:00,
2013-01-28 19:41:00,24.1,17.0,29.55,East,90,2.5,4.3,74,0.00,,,0.00,WUHU216HW,2013-01-29 02:41:00,
2013-01-28 19:42:00,24.3,17.2,29.55,SSE,158,2.9,4.3,74,0.00,,,0.00,WUHU216HW,2013-01-29 02:42:00,
2013-01-28 19:43:00,24.1,17.0,29.55,South,180,3.1,4.3,74,0.00,,,0.00,WUHU216HW,2013-01-29 02:43:00,
2013-01-28 19:44:00,24.3,17.2,29.55,SE,135,3.4,4.0,74,0.00,,,0.00,WUHU216HW,2013-01-29 02:44:00,
2013-01-28 19:46:00,24.3,17.2,29.55,SE,135,3.8,4.7,74,0.00,,,0.00,WUHU216HW,2013-01-29 02:46:00,
2013-01-28 19:47:00,24.3,17.2,29.55,SE,135,3.6,4.7,74,0.00,,,0.00,WUHU216HW,2013-01-29 02:47:00,
2013-01-28 19:48:00,24.3,17.2,29.55,SE,135,3.4,4.7,74,0.00,,,0.00,WUHU216HW,2013-01-29 02:48:00,
2013-01-28 19:49:00,24.3,17.2,29.55,SE,135,4.0,4.7,74,0.00,,,0.00,WUHU216HW,2013-01-29 02:49:00,
2013-01-28 19:51:00,24.3,17.2,29.55,ESE,113,1.8,4.7,74,0.00,,,0.00,WUHU216HW,2013-01-29 02:51:00,
2013-01-28 19:53:00,24.3,17.2,29.55,SE,135,2.2,4.7,74,0.00,,,0.00,WUHU216HW,2013-01-29 02:53:00,
2013-01-28 19:54:00,24.3,17.2,29.55,SSE,158,1.8,4.7,74,0.00,,,0.00,WUHU216HW,2013-01-29 02:54:00,
2013-01-28 19:56:00,24.3,17.2,29.55,North,0,0.4,4.7,74,0.00,,,0.00,WUHU216HW,2013-01-29 02:56:00,
2013-01-28 19:58:00,24.1,17.3,29.55,North,0,0.7,4.7,75,0.00,,,0.00,WUHU216HW,2013-01-29 02:58:00,
2013-01-28 19:59:00,24.1,17.3,29.55,North,0,1.1,4.7,75,0.00,,,0.00,WUHU216HW,2013-01-29 02:59:00,
2013-01-28 20:01:00,23.8,17.0,29.55,NE,45,1.6,3.6,75,0.00,,,0.00,WUHU216HW,2013-01-29 03:01:00,
2013-01-28 20:03:00,23.8,17.0,29.54,ESE,113,0.4,3.6,75,0.00,,,0.00,WUHU216HW,2013-01-29 03:03:00,
2013-01-28 20:04:00,23.8,17.0,29.54,SE,135,0.4,3.6,75,0.00,,,0.00,WUHU216HW,2013-01-29 03:04:00,
2013-01-28 20:07:00,23.6,16.8,29.55,WSW,248,0.2,3.6,75,0.00,,,0.00,WUHU216HW,2013-01-29 03:07:00,
2013-01-28 20:08:00,23.6,16.8,29.55,SW,225,1.3,3.6,75,0.00,,,0.00,WUHU216HW,2013-01-29 03:08:00,
2013-01-28 20:09:00,23.6,16.8,29.55,SW,225,1.1,3.6,75,0.00,,,0.00,WUHU216HW,2013-01-29 03:09:00,
2013-01-28 20:12:00,23.6,16.8,29.55,ESE,113,1.8,2.5,75,0.00,,,0.00,WUHU216HW,2013-01-29 03:12:00,
2013-01-28 20:13:00,23.6,16.8,29.55,ESE,113,2.2,2.5,75,0.00,,,0.00,WUHU216HW,2013-01-29 03:13:00,
2013-01-28 20:14:00,23.6,16.8,29.55,ESE,113,2.2,2.5,75,0.00,,,0.00,WUHU216HW,2013-01-29 03:14:00,
2013-01-28 20:15:00,23.6,16.5,29.55,ESE,113,1.8,2.5,74,0.00,,,0.00,WUHU216HW,2013-01-29 03:15:00,
2013-01-28 20:17:00,23.6,16.8,29.55,East,90,1.3,2.5,75,0.00,,,0.00,WUHU216HW,2013-01-29 03:17:00,
2013-01-28 20:18:00,23.6,16.8,29.55,East,90,1.3,2.5,75,0.00,,,0.00,WUHU216HW,2013-01-29 03:18:00,
2013-01-28 20:19:00,23.6,16.8,29.55,East,90,0.9,2.5,75,0.00,,,0.00,WUHU216HW,2013-01-29 03:19:00,
2013-01-28 20:20:00,23.6,16.8,29.55,ENE,68,1.3,2.5,75,0.00,,,0.00,WUHU216HW,2013-01-29 03:20:00,
2013-01-28 20:22:00,23.6,16.8,29.54,ENE,68,1.1,2.5,75,0.00,,,0.00,WUHU216HW,2013-01-29 03:22:00,
2013-01-28 20:23:00,23.6,17.1,29.54,ENE,68,2.5,2.5,76,0.00,,,0.00,WUHU216HW,2013-01-29 03:23:00,
2013-01-28 20:24:00,23.6,16.8,29.54,ENE,68,2.9,2.9,75,0.00,,,0.00,WUHU216HW,2013-01-29 03:24:00,
2013-01-28 20:25:00,23.6,17.1,29.54,East,90,3.4,4.3,76,0.00,,,0.00,WUHU216HW,2013-01-29 03:25:00,
2013-01-28 20:27:00,23.6,16.8,29.54,ESE,113,0.0,4.3,75,0.00,,,0.00,WUHU216HW,2013-01-29 03:27:00,
2013-01-28 20:29:00,23.6,16.8,29.54,WNW,293,1.3,4.3,75,0.00,,,0.00,WUHU216HW,2013-01-29 03:29:00,
2013-01-28 20:30:00,23.4,16.7,29.54,NNW,338,2.2,4.3,75,0.00,,,0.00,WUHU216HW,2013-01-29 03:30:00,
2013-01-28 20:32:00,23.4,16.9,29.54,NNE,23,1.6,4.3,76,0.00,,,0.00,WUHU216HW,2013-01-29 03:32:00,
2013-01-28 20:34:00,23.4,16.9,29.54,East,90,1.1,4.3,76,0.00,,,0.00,WUHU216HW,2013-01-29 03:34:00,
2013-01-28 20:35:00,23.4,16.7,29.54,ESE,113,2.2,4.3,75,0.00,,,0.00,WUHU216HW,2013-01-29 03:35:00,
2013-01-28 20:38:00,23.4,16.7,29.54,East,90,3.8,5.8,75,0.00,,,0.00,WUHU216HW,2013-01-29 03:38:00,
2013-01-28 20:39:00,23.4,16.7,29.54,SE,135,4.3,5.8,75,0.00,,,0.00,WUHU216HW,2013-01-29 03:39:00,
2013-01-28 20:40:00,23.4,16.7,29.54,South,180,1.8,5.8,75,0.00,,,0.00,WUHU216HW,2013-01-29 03:40:00,
2013-01-28 20:41:00,23.4,16.3,29.54,WSW,248,3.6,5.8,74,0.00,,,0.00,WUHU216HW,2013-01-29 03:41:00,
2013-01-28 20:43:00,23.6,16.5,29.54,SSW,203,1.1,5.8,74,0.00,,,0.00,WUHU216HW,2013-01-29 03:43:00,
2013-01-28 20:44:00,23.6,16.5,29.54,SSW,203,2.0,5.8,74,0.00,,,0.00,WUHU216HW,2013-01-29 03:44:00,
2013-01-28 20:46:00,23.6,16.5,29.54,SSE,158,1.1,5.8,74,0.00,,,0.00,WUHU216HW,2013-01-29 03:46:00,
2013-01-28 20:48:00,23.6,16.5,29.54,WSW,248,3.6,4.7,74,0.00,,,0.00,WUHU216HW,2013-01-29 03:48:00,
2013-01-28 20:49:00,23.6,16.2,29.54,WSW,248,1.3,4.7,73,0.00,,,0.00,WUHU216HW,2013-01-29 03:49:00,
2013-01-28 20:51:00,23.6,16.2,29.54,WSW,248,0.0,4.7,73,0.00,,,0.00,WUHU216HW,2013-01-29 03:51:00,
2013-01-28 20:53:00,23.4,15.7,29.54,West,270,1.3,3.6,72,0.00,,,0.00,WUHU216HW,2013-01-29 03:53:00,
2013-01-28 20:54:00,23.4,15.7,29.54,West,270,0.0,3.6,72,0.00,,,0.00,WUHU216HW,2013-01-29 03:54:00,
2013-01-28 20:56:00,23.6,15.6,29.53,ENE,68,4.7,5.1,71,0.00,,,0.00,WUHU216HW,2013-01-29 03:56:00,
2013-01-28 20:58:00,23.8,15.4,29.54,WNW,293,4.3,5.4,70,0.00,,,0.00,WUHU216HW,2013-01-29 03:58:00,
2013-01-28 20:59:00,23.6,15.2,29.54,West,270,3.8,5.4,70,0.00,,,0.00,WUHU216HW,2013-01-29 03:59:00,
2013-01-28 21:01:00,23.8,15.4,29.54,ESE,113,4.7,5.4,70,0.00,,,0.00,WUHU216HW,2013-01-29 04:01:00,
2013-01-28 21:04:00,23.8,15.0,29.53,South,180,7.4,7.4,69,0.00,,,0.00,WUHU216HW,2013-01-29 04:04:00,
2013-01-28 21:06:00,23.8,15.4,29.54,South,180,3.8,7.4,70,0.00,,,0.00,WUHU216HW,2013-01-29 04:06:00,
2013-01-28 21:09:00,24.1,15.4,29.53,ESE,113,6.3,7.4,69,0.00,,,0.00,WUHU216HW,2013-01-29 04:09:00,
2013-01-28 21:11:00,24.1,15.4,29.53,SW,225,4.3,7.4,69,0.00,,,0.00,WUHU216HW,2013-01-29 04:11:00,
2013-01-28 21:14:00,24.1,15.4,29.53,South,180,3.1,6.5,69,0.00,,,0.00,WUHU216HW,2013-01-29 04:14:00,
2013-01-28 21:15:00,24.1,15.4,29.53,SSW,203,4.7,6.5,69,0.00,,,0.00,WUHU216HW,2013-01-29 04:15:00,
2013-01-28 21:16:00,24.1,15.4,29.54,SSE,158,4.9,6.5,69,0.00,,,0.00,WUHU216HW,2013-01-29 04:16:00,
2013-01-28 21:19:00,24.3,15.6,29.53,ESE,113,11.4,11.4,69,0.00,,,0.00,WUHU216HW,2013-01-29 04:19:00,
2013-01-28 21:20:00,24.3,15.6,29.53,East,90,10.5,11.4,69,0.00,,,0.00,WUHU216HW,2013-01-29 04:20:00,
2013-01-28 21:21:00,24.5,15.4,29.53,ESE,113,6.0,11.4,68,0.00,,,0.00,WUHU216HW,2013-01-29 04:21:00,
2013-01-28 21:24:00,24.5,15.4,29.53,East,90,4.0,11.4,68,0.00,,,0.00,WUHU216HW,2013-01-29 04:24:00,
2013-01-28 21:25:00,24.5,15.8,29.53,ESE,113,4.7,11.4,69,0.00,,,0.00,WUHU216HW,2013-01-29 04:25:00,
2013-01-28 21:26:00,24.5,15.8,29.53,SE,135,5.1,11.4,69,0.00,,,0.00,WUHU216HW,2013-01-29 04:26:00,
2013-01-28 21:29:00,24.5,15.4,29.53,SE,135,4.9,11.4,68,0.00,,,0.00,WUHU216HW,2013-01-29 04:29:00,
2013-01-28 21:30:00,24.5,15.4,29.53,SE,135,4.7,9.4,68,0.00,,,0.00,WUHU216HW,2013-01-29 04:30:00,
2013-01-28 21:31:00,24.3,15.2,29.53,SE,135,6.7,6.7,68,0.00,,,0.00,WUHU216HW,2013-01-29 04:31:00,
2013-01-28 21:34:00,24.3,15.2,29.53,SE,135,3.8,6.9,68,0.00,,,0.00,WUHU216HW,2013-01-29 04:34:00,
2013-01-28 21:35:00,24.5,15.4,29.53,SE,135,3.4,6.9,68,0.00,,,0.00,WUHU216HW,2013-01-29 04:35:00,
2013-01-28 21:36:00,24.5,15.8,29.53,SSE,158,4.7,6.9,69,0.00,,,0.00,WUHU216HW,2013-01-29 04:36:00,
2013-01-28 21:37:00,24.3,15.2,29.53,SE,135,4.7,6.9,68,0.00,,,0.00,WUHU216HW,2013-01-29 04:37:00,
2013-01-28 21:39:00,24.5,15.4,29.53,ESE,113,2.9,6.9,68,0.00,,,0.00,WUHU216HW,2013-01-29 04:39:00,
2013-01-28 21:40:00,24.5,15.4,29.53,ESE,113,4.5,6.9,68,0.00,,,0.00,WUHU216HW,2013-01-29 04:40:00,
2013-01-28 21:41:00,24.5,15.4,29.53,ESE,113,6.7,6.9,68,0.00,,,0.00,WUHU216HW,2013-01-29 04:41:00,
2013-01-28 21:42:00,24.5,15.4,29.53,East,90,6.9,6.9,68,0.00,,,0.00,WUHU216HW,2013-01-29 04:42:00,
2013-01-28 21:44:00,24.5,15.4,29.53,ESE,113,3.8,6.9,68,0.00,,,0.00,WUHU216HW,2013-01-29 04:44:00,
2013-01-28 21:45:00,24.3,15.2,29.53,ESE,113,3.1,6.9,68,0.00,,,0.00,WUHU216HW,2013-01-29 04:45:00,
2013-01-28 21:46:00,24.3,15.6,29.53,East,90,3.8,6.9,69,0.00,,,0.00,WUHU216HW,2013-01-29 04:46:00,
2013-01-28 21:47:00,24.3,15.6,29.53,ESE,113,2.7,6.9,69,0.00,,,0.00,WUHU216HW,2013-01-29 04:47:00,
2013-01-28 21:49:00,24.1,15.4,29.53,ENE,68,0.9,6.9,69,0.00,,,0.00,WUHU216HW,2013-01-29 04:49:00,
2013-01-28 21:50:00,24.1,15.4,29.53,ENE,68,0.4,6.9,69,0.00,,,0.00,WUHU216HW,2013-01-29 04:50:00,
2013-01-28 21:51:00,24.1,15.4,29.53,East,90,1.3,6.9,69,0.00,,,0.00,WUHU216HW,2013-01-29 04:51:00,
2013-01-28 21:52:00,24.1,15.0,29.53,East,90,1.8,6.7,68,0.00,,,0.00,WUHU216HW,2013-01-29 04:52:00,
2013-01-28 21:54:00,23.9,14.9,29.53,ENE,68,1.6,3.8,68,0.00,,,0.00,WUHU216HW,2013-01-29 04:54:00,
2013-01-28 21:55:00,23.9,15.2,29.53,ENE,68,1.1,3.8,69,0.00,,,0.00,WUHU216HW,2013-01-29 04:55:00,
2013-01-28 21:56:00,23.9,15.2,29.53,ENE,68,0.7,3.8,69,0.00,,,0.00,WUHU216HW,2013-01-29 04:56:00,
2013-01-28 21:57:00,23.8,15.0,29.53,East,90,1.3,2.7,69,0.00,,,0.00,WUHU216HW,2013-01-29 04:57:00,
2013-01-28 21:59:00,23.8,15.0,29.53,East,90,1.1,2.7,69,0.00,,,0.00,WUHU216HW,2013-01-29 04:59:00,
2013-01-28 22:00:00,23.8,15.0,29.53,East,90,0.9,2.7,69,0.00,,,0.00,WUHU216HW,2013-01-29 05:00:00,
2013-01-28 22:03:00,23.6,15.2,29.53,WNW,293,4.5,5.4,70,0.00,,,0.00,WUHU216HW,2013-01-29 05:03:00,
2013-01-28 22:05:00,23.4,15.7,29.53,North,0,2.5,5.4,72,0.00,,,0.00,WUHU216HW,2013-01-29 05:05:00,
2013-01-28 22:08:00,23.0,15.4,29.53,East,90,5.6,6.5,72,0.00,,,0.00,WUHU216HW,2013-01-29 05:08:00,
2013-01-28 22:11:00,23.2,15.6,29.53,SSE,158,2.0,6.5,72,0.00,,,0.00,WUHU216HW,2013-01-29 05:11:00,
2013-01-28 22:13:00,23.2,15.6,29.53,WSW,248,2.5,6.5,72,0.00,,,0.00,WUHU216HW,2013-01-29 05:13:00,
2013-01-28 22:14:00,23.2,15.6,29.53,WSW,248,2.5,6.5,72,0.00,,,0.00,WUHU216HW,2013-01-29 05:14:00,
2013-01-28 22:16:00,23.4,15.7,29.53,SW,225,1.8,6.5,72,0.00,,,0.00,WUHU216HW,2013-01-29 05:16:00,
2013-01-28 22:19:00,23.4,15.4,29.53,South,180,2.2,4.5,71,0.00,,,0.00,WUHU216HW,2013-01-29 05:19:00,
2013-01-28 22:21:00,23.4,15.4,29.53,SW,225,0.4,4.5,71,0.00,,,0.00,WUHU216HW,2013-01-29 05:21:00,
2013-01-28 22:24:00,23.4,15.4,29.53,NW,315,1.8,4.5,71,0.00,,,0.00,WUHU216HW,2013-01-29 05:24:00,
2013-01-28 22:26:00,23.4,15.4,29.53,SW,225,1.8,3.4,71,0.00,,,0.00,WUHU216HW,2013-01-29 05:26:00,
2013-01-28 22:29:00,23.2,15.2,29.53,SSW,203,0.0,3.4,71,0.00,,,0.00,WUHU216HW,2013-01-29 05:29:00,
2013-01-28 22:31:00,23.2,15.2,29.53,SSW,203,0.4,3.1,71,0.00,,,0.00,WUHU216HW,2013-01-29 05:31:00,
2013-01-28 22:34:00,23.2,15.2,29.53,ESE,113,1.1,3.1,71,0.00,,,0.00,WUHU216HW,2013-01-29 05:34:00,
2013-01-28 22:36:00,23.0,15.0,29.52,ESE,113,3.1,3.1,71,0.00,,,0.00,WUHU216HW,2013-01-29 05:36:00,
2013-01-28 22:37:00,23.0,15.0,29.52,ESE,113,4.0,4.0,71,0.00,,,0.00,WUHU216HW,2013-01-29 05:37:00,
2013-01-28 22:39:00,23.0,15.0,29.52,SE,135,1.3,4.5,71,0.00,,,0.00,WUHU216HW,2013-01-29 05:39:00,
2013-01-28 22:41:00,23.0,15.0,29.52,East,90,0.4,4.5,71,0.00,,,0.00,WUHU216HW,2013-01-29 05:41:00,
2013-01-28 22:42:00,23.0,15.0,29.52,North,0,1.8,4.5,71,0.00,,,0.00,WUHU216HW,2013-01-29 05:42:00,
2013-01-28 22:44:00,23.0,15.4,29.52,North,0,2.5,4.5,72,0.00,,,0.00,WUHU216HW,2013-01-29 05:44:00,
2013-01-28 22:46:00,22.9,15.2,29.52,North,0,0.0,4.5,72,0.00,,,0.00,WUHU216HW,2013-01-29 05:46:00,
2013-01-28 22:47:00,22.9,15.2,29.52,North,0,0.0,4.5,72,0.00,,,0.00,WUHU216HW,2013-01-29 05:47:00,
2013-01-28 22:49:00,22.9,14.9,29.52,SE,135,2.5,3.1,71,0.00,,,0.00,WUHU216HW,2013-01-29 05:49:00,
2013-01-28 22:50:00,22.9,14.9,29.52,SE,135,2.0,3.1,71,0.00,,,0.00,WUHU216HW,2013-01-29 05:50:00,
2013-01-28 22:51:00,23.0,15.0,29.52,ESE,113,1.8,3.1,71,0.00,,,0.00,WUHU216HW,2013-01-29 05:51:00,
2013-01-28 22:52:00,23.0,15.0,29.52,ESE,113,2.0,3.1,71,0.00,,,0.00,WUHU216HW,2013-01-29 05:52:00,
2013-01-28 22:55:00,23.0,15.0,29.52,ESE,113,2.2,3.4,71,0.00,,,0.00,WUHU216HW,2013-01-29 05:55:00,
2013-01-28 22:56:00,23.2,15.2,29.52,ESE,113,1.6,3.4,71,0.00,,,0.00,WUHU216HW,2013-01-29 05:56:00,
2013-01-28 22:57:00,23.2,15.2,29.52,SSE,158,0.9,3.4,71,0.00,,,0.00,WUHU216HW,2013-01-29 05:57:00,
2013-01-28 23:00:00,23.2,15.2,29.52,SW,225,2.5,3.4,71,0.00,,,0.00,WUHU216HW,2013-01-29 06:00:00,
2013-01-28 23:01:00,23.2,15.2,29.52,SW,225,1.6,3.4,71,0.00,,,0.00,WUHU216HW,2013-01-29 06:01:00,
2013-01-28 23:02:00,23.2,15.2,29.52,SW,225,0.9,3.4,71,0.00,,,0.00,WUHU216HW,2013-01-29 06:02:00,
2013-01-28 23:06:00,23.0,15.0,29.52,WSW,248,1.3,3.1,71,0.00,,,0.00,WUHU216HW,2013-01-29 06:06:00,
2013-01-28 23:07:00,22.9,14.9,29.52,West,270,3.4,3.4,71,0.00,,,0.00,WUHU216HW,2013-01-29 06:07:00,
2013-01-28 23:11:00,22.7,15.0,29.52,SE,135,2.5,6.9,72,0.00,,,0.00,WUHU216HW,2013-01-29 06:11:00,
2013-01-28 23:12:00,22.5,14.9,29.52,SE,135,6.3,6.9,72,0.00,,,0.00,WUHU216HW,2013-01-29 06:12:00,
2013-01-28 23:16:00,22.7,15.0,29.52,North,0,0.9,6.9,72,0.00,,,0.00,WUHU216HW,2013-01-29 06:16:00,
2013-01-28 23:17:00,22.7,15.0,29.52,NNE,23,1.1,6.9,72,0.00,,,0.00,WUHU216HW,2013-01-29 06:17:00,
2013-01-28 23:18:00,22.7,15.0,29.52,NNE,23,0.9,6.9,72,0.00,,,0.00,WUHU216HW,2013-01-29 06:18:00,
2013-01-28 23:21:00,22.9,15.2,29.52,East,90,1.8,6.3,72,0.00,,,0.00,WUHU216HW,2013-01-29 06:21:00,
2013-01-28 23:22:00,22.9,15.2,29.52,East,90,3.1,6.3,72,0.00,,,0.00,WUHU216HW,2013-01-29 06:22:00,
2013-01-28 23:23:00,23.0,15.4,29.52,East,90,3.8,4.0,72,0.00,,,0.00,WUHU216HW,2013-01-29 06:23:00,
2013-01-28 23:26:00,23.0,15.4,29.53,SE,135,4.5,4.5,72,0.00,,,0.00,WUHU216HW,2013-01-29 06:26:00,
2013-01-28 23:27:00,23.0,15.4,29.52,SE,135,4.5,4.5,72,0.00,,,0.00,WUHU216HW,2013-01-29 06:27:00,
2013-01-28 23:28:00,23.0,15.4,29.52,SE,135,1.8,4.5,72,0.00,,,0.00,WUHU216HW,2013-01-29 06:28:00,
2013-01-28 23:31:00,23.0,15.4,29.52,East,90,2.9,4.5,72,0.00,,,0.00,WUHU216HW,2013-01-29 06:31:00,
2013-01-28 23:32:00,23.0,15.4,29.52,East,90,2.9,4.5,72,0.00,,,0.00,WUHU216HW,2013-01-29 06:32:00,
2013-01-28 23:33:00,23.0,15.7,29.52,ENE,68,3.1,4.5,73,0.00,,,0.00,WUHU216HW,2013-01-29 06:33:00,
2013-01-28 23:37:00,22.9,15.2,29.53,ENE,68,0.0,4.5,72,0.00,,,0.00,WUHU216HW,2013-01-29 06:37:00,
2013-01-28 23:38:00,22.9,15.2,29.53,WSW,248,1.1,3.1,72,0.00,,,0.00,WUHU216HW,2013-01-29 06:38:00,
2013-01-28 23:42:00,22.9,15.2,29.53,SSE,158,3.1,3.4,72,0.00,,,0.00,WUHU216HW,2013-01-29 06:42:00,
2013-01-28 23:43:00,22.9,15.2,29.52,South,180,0.4,3.4,72,0.00,,,0.00,WUHU216HW,2013-01-29 06:43:00,
2013-01-28 23:47:00,23.0,15.4,29.52,SW,225,2.9,3.4,72,0.00,,,0.00,WUHU216HW,2013-01-29 06:47:00,
2013-01-28 23:48:00,23.0,15.4,29.52,SSE,158,2.9,3.4,72,0.00,,,0.00,WUHU216HW,2013-01-29 06:48:00,
2013-01-28 23:52:00,23.0,15.4,29.52,SW,225,1.1,5.4,72,0.00,,,0.00,WUHU216HW,2013-01-29 06:52:00,
2013-01-28 23:53:00,23.0,15.4,29.53,SSW,203,1.8,5.4,72,0.00,,,0.00,WUHU216HW,2013-01-29 06:53:00,
2013-01-28 23:57:00,23.2,15.6,29.53,SSW,203,1.1,5.4,72,0.00,,,0.00,WUHU216HW,2013-01-29 06:57:00,
2013-01-28 23:58:00,23.2,15.6,29.53,ESE,113,2.9,5.4,72,0.00,,,0.00,WUHU216HW,2013-01-29 06:58:00,